Wetterdaten: Mittwoch, 13.09.2017
Datum Zeit Temp. Aussen Temp. o. S. +5cm Feuchte Auss BlattFeu 1 Luftdruck Regen Sonnenschein Regendauer Solar Windben Empfang
13.09.2017 00:00 12,4 C 12,2 C 10,0 C 88 % 0 lf 1007,4 hPa 0,0 l/m 0 min 0 min 0 W/m 16,7 km/h (3 Bft) 100,00 %
13.09.2017 00:02 12,4 C 12,2 C 10,0 C 88 % 0 lf 1007,4 hPa 0,0 l/m 0 min 0 min 0 W/m 16,7 km/h (3 Bft) 100,00 %
13.09.2017 00:04 12,4 C 12,2 C 10,0 C 88 % 0 lf 1007,3 hPa 0,0 l/m 0 min 0 min 0 W/m 16,7 km/h (3 Bft) 95,74 %
13.09.2017 00:08 12,5 C 12,2 C 10,0 C 88 % 0 lf 1007,3 hPa 0,0 l/m 0 min 0 min 0 W/m 23,0 km/h (4 Bft) 98,82 %
13.09.2017 00:10 12,5 C 12,2 C 10,6 C 88 % 0 lf 1007,2 hPa 0,0 l/m 0 min 0 min 0 W/m 25,1 km/h (4 Bft) 100,00 %
13.09.2017 00:12 12,5 C 12,2 C 10,6 C 88 % 0 lf 1007,2 hPa 0,0 l/m 0 min 0 min 0 W/m 20,9 km/h (4 Bft) 100,00 %
13.09.2017 00:14 12,5 C 12,8 C 10,6 C 88 % 0 lf 1007,2 hPa 0,0 l/m 0 min 0 min 0 W/m 29,3 km/h (5 Bft) 97,87 %
13.09.2017 00:16 12,6 C 12,8 C 10,6 C 88 % 0 lf 1007,1 hPa 0,0 l/m 0 min 0 min 0 W/m 14,6 km/h (3 Bft) 97,87 %
13.09.2017 00:18 12,6 C 12,8 C 10,6 C 88 % 0 lf 1007,2 hPa 0,0 l/m 0 min 0 min 0 W/m 23,0 km/h (4 Bft) 95,74 %
13.09.2017 00:20 12,6 C 12,8 C 10,6 C 88 % 0 lf 1007,1 hPa 0,0 l/m 0 min 0 min 0 W/m 23,0 km/h (4 Bft) 100,00 %
13.09.2017 00:22 12,6 C 12,8 C 10,6 C 88 % 0 lf 1007,0 hPa 0,0 l/m 0 min 0 min 0 W/m 23,0 km/h (4 Bft) 97,87 %
13.09.2017 00:24 12,7 C 12,8 C 10,6 C 88 % 0 lf 1007,0 hPa 0,0 l/m 0 min 0 min 0 W/m 16,7 km/h (3 Bft) 97,83 %
13.09.2017 00:26 12,7 C 12,8 C 10,6 C 88 % 0 lf 1006,9 hPa 0,0 l/m 0 min 0 min 0 W/m 20,9 km/h (4 Bft) 95,74 %
13.09.2017 00:28 12,7 C 12,8 C 10,6 C 88 % 0 lf 1007,0 hPa 0,0 l/m 0 min 0 min 0 W/m 23,0 km/h (4 Bft) 95,74 %
13.09.2017 00:30 12,7 C 12,8 C 10,6 C 88 % 0 lf 1006,8 hPa 0,0 l/m 0 min 0 min 0 W/m 12,6 km/h (3 Bft) 97,87 %
13.09.2017 00:32 12,8 C 12,8 C 10,6 C 88 % 0 lf 1006,8 hPa 0,0 l/m 0 min 0 min 0 W/m 18,8 km/h (3 Bft) 97,87 %
13.09.2017 00:34 12,8 C 12,8 C 10,6 C 88 % 0 lf 1006,9 hPa 0,0 l/m 0 min 0 min 0 W/m 16,7 km/h (3 Bft) 95,74 %
13.09.2017 00:36 12,8 C 12,8 C 10,6 C 88 % 0 lf 1006,8 hPa 0,0 l/m 0 min 0 min 0 W/m 10,5 km/h (2 Bft) 95,65 %
13.09.2017 00:38 12,8 C 12,8 C 10,6 C 88 % 0 lf 1006,7 hPa 0,0 l/m 0 min 0 min 0 W/m 25,1 km/h (4 Bft) 95,74 %
13.09.2017 00:40 12,8 C 12,8 C 10,6 C 88 % 0 lf 1006,6 hPa 0,0 l/m 0 min 0 min 0 W/m 16,7 km/h (3 Bft) 93,62 %
13.09.2017 00:42 12,8 C 12,8 C 10,6 C 88 % 0 lf 1006,7 hPa 0,0 l/m 0 min 0 min 0 W/m 23,0 km/h (4 Bft) 95,74 %
13.09.2017 00:44 12,8 C 12,8 C 10,6 C 88 % 0 lf 1006,7 hPa 0,0 l/m 0 min 0 min 0 W/m 18,8 km/h (3 Bft) 95,74 %
13.09.2017 00:46 12,9 C 12,8 C 10,6 C 88 % 0 lf 1006,6 hPa 0,0 l/m 0 min 0 min 0 W/m 25,1 km/h (4 Bft) 95,74 %
13.09.2017 00:48 12,9 C 12,8 C 10,6 C 88 % 0 lf 1006,7 hPa 0,0 l/m 0 min 0 min 0 W/m 23,0 km/h (4 Bft) 95,65 %
13.09.2017 00:50 12,9 C 12,8 C 10,6 C 88 % 0 lf 1006,5 hPa 0,0 l/m 0 min 0 min 0 W/m 20,9 km/h (4 Bft) 91,49 %
13.09.2017 00:52 12,9 C 12,8 C 10,6 C 88 % 0 lf 1006,5 hPa 0,0 l/m 0 min 0 min 0 W/m 14,6 km/h (3 Bft) 95,74 %
13.09.2017 00:54 12,9 C 12,8 C 10,6 C 87 % 0 lf 1006,3 hPa 0,0 l/m 0 min 0 min 0 W/m 23,0 km/h (4 Bft) 95,74 %
13.09.2017 00:56 12,9 C 12,8 C 10,6 C 87 % 0 lf 1006,2 hPa 0,0 l/m 0 min 0 min 0 W/m 16,7 km/h (3 Bft) 95,74 %
13.09.2017 00:58 12,9 C 12,8 C 10,6 C 87 % 0 lf 1006,2 hPa 0,0 l/m 0 min 0 min 0 W/m 23,0 km/h (4 Bft) 95,74 %
13.09.2017 01:00 12,9 C 12,8 C 10,6 C 87 % 0 lf 1006,0 hPa 0,0 l/m 0 min 0 min 0 W/m 14,6 km/h (3 Bft) 95,65 %
13.09.2017 01:02 13,0 C 12,8 C 10,6 C 87 % 0 lf 1006,0 hPa 0,0 l/m 0 min 0 min 0 W/m 18,8 km/h (3 Bft) 95,74 %
13.09.2017 01:04 13,0 C 12,8 C 10,6 C 87 % 0 lf 1005,9 hPa 0,0 l/m 0 min 0 min 0 W/m 16,7 km/h (3 Bft) 95,74 %
13.09.2017 01:06 13,0 C 12,8 C 10,6 C 87 % 0 lf 1005,8 hPa 0,0 l/m 0 min 0 min 0 W/m 18,8 km/h (3 Bft) 95,74 %
13.09.2017 01:08 13,0 C 12,8 C 11,1 C 87 % 0 lf 1005,8 hPa 0,0 l/m 0 min 0 min 0 W/m 27,2 km/h (4 Bft) 95,74 %
13.09.2017 01:10 13,0 C 12,8 C 11,1 C 87 % 0 lf 1005,8 hPa 0,0 l/m 0 min 0 min 0 W/m 18,8 km/h (3 Bft) 97,87 %
13.09.2017 01:12 13,1 C 12,8 C 11,1 C 87 % 0 lf 1005,8 hPa 0,0 l/m 0 min 0 min 0 W/m 27,2 km/h (4 Bft) 97,83 %
13.09.2017 01:14 13,1 C 12,8 C 11,1 C 87 % 0 lf 1005,8 hPa 0,0 l/m 0 min 0 min 0 W/m 23,0 km/h (4 Bft) 97,87 %
13.09.2017 01:16 13,1 C 13,3 C 11,1 C 87 % 0 lf 1005,7 hPa 0,0 l/m 0 min 0 min 0 W/m 29,3 km/h (5 Bft) 97,87 %
13.09.2017 01:18 13,1 C 13,3 C 11,1 C 87 % 0 lf 1005,7 hPa 0,0 l/m 0 min 0 min 2 W/m 20,9 km/h (4 Bft) 97,87 %
13.09.2017 01:20 13,1 C 13,3 C 11,1 C 87 % 0 lf 1005,5 hPa 0,0 l/m 0 min 0 min 5 W/m 27,2 km/h (4 Bft) 97,87 %
13.09.2017 01:22 13,1 C 13,3 C 11,1 C 87 % 0 lf 1005,5 hPa 0,0 l/m 0 min 0 min 5 W/m 20,9 km/h (4 Bft) 97,83 %
13.09.2017 01:24 13,2 C 13,3 C 11,1 C 86 % 0 lf 1005,5 hPa 0,0 l/m 0 min 0 min 5 W/m 18,8 km/h (3 Bft) 95,74 %
13.09.2017 01:26 13,2 C 13,3 C 11,1 C 86 % 0 lf 1005,5 hPa 0,0 l/m 0 min 0 min 5 W/m 20,9 km/h (4 Bft) 95,74 %
13.09.2017 01:28 13,2 C 13,3 C 11,1 C 86 % 0 lf 1005,4 hPa 0,0 l/m 0 min 0 min 5 W/m 31,4 km/h (5 Bft) 95,74 %
13.09.2017 01:30 13,2 C 13,3 C 11,1 C 86 % 0 lf 1005,3 hPa 0,0 l/m 0 min 0 min 5 W/m 20,9 km/h (4 Bft) 97,87 %
13.09.2017 01:32 13,2 C 13,3 C 11,1 C 86 % 0 lf 1005,2 hPa 0,0 l/m 0 min 0 min 5 W/m 14,6 km/h (3 Bft) 97,87 %
13.09.2017 01:34 13,2 C 13,3 C 11,1 C 86 % 0 lf 1005,1 hPa 0,0 l/m 0 min 0 min 0 W/m 25,1 km/h (4 Bft) 95,65 %
13.09.2017 01:36 13,3 C 13,3 C 11,1 C 86 % 0 lf 1005,0 hPa 0,0 l/m 0 min 0 min 5 W/m 27,2 km/h (4 Bft) 97,87 %
13.09.2017 01:38 13,3 C 13,3 C 11,1 C 86 % 0 lf 1005,0 hPa 0,0 l/m 0 min 0 min 5 W/m 16,7 km/h (3 Bft) 95,74 %
13.09.2017 01:40 13,3 C 13,3 C 11,1 C 86 % 0 lf 1005,1 hPa 0,0 l/m 0 min 0 min 3 W/m 23,0 km/h (4 Bft) 95,74 %
13.09.2017 01:42 13,3 C 13,3 C 11,1 C 86 % 0 lf 1004,9 hPa 0,0 l/m 0 min 0 min 0 W/m 16,7 km/h (3 Bft) 95,74 %
13.09.2017 01:44 13,3 C 13,3 C 11,1 C 86 % 0 lf 1005,0 hPa 0,0 l/m 0 min 0 min 5 W/m 20,9 km/h (4 Bft) 95,74 %
13.09.2017 01:46 13,3 C 13,3 C 11,1 C 86 % 0 lf 1004,9 hPa 0,0 l/m 0 min 0 min 0 W/m 20,9 km/h (4 Bft) 95,65 %
13.09.2017 01:48 13,3 C 13,3 C 11,1 C 85 % 0 lf 1004,9 hPa 0,0 l/m 0 min 0 min 5 W/m 27,2 km/h (4 Bft) 95,74 %
13.09.2017 01:50 13,3 C 13,3 C 11,1 C 85 % 0 lf 1004,8 hPa 0,0 l/m 0 min 0 min 0 W/m 20,9 km/h (4 Bft) 95,74 %
13.09.2017 01:52 13,4 C 13,3 C 11,1 C 85 % 0 lf 1004,8 hPa 0,0 l/m 0 min 0 min 0 W/m 16,7 km/h (3 Bft) 95,74 %
13.09.2017 01:54 13,4 C 13,3 C 11,1 C 85 % 0 lf 1004,8 hPa 0,0 l/m 0 min 0 min 0 W/m 23,0 km/h (4 Bft) 93,62 %
13.09.2017 01:56 13,4 C 13,3 C 11,1 C 85 % 0 lf 1004,7 hPa 0,0 l/m 0 min 0 min 0 W/m 18,8 km/h (3 Bft) 93,62 %
13.09.2017 01:58 13,4 C 13,3 C 11,1 C 85 % 0 lf 1004,6 hPa 0,0 l/m 0 min 0 min 4 W/m 18,8 km/h (3 Bft) 97,83 %
13.09.2017 02:00 13,4 C 13,3 C 11,7 C 85 % 0 lf 1004,6 hPa 0,0 l/m 0 min 0 min 0 W/m 27,2 km/h (4 Bft) 93,62 %
13.09.2017 02:02 13,4 C 13,3 C 11,7 C 85 % 0 lf 1004,5 hPa 0,0 l/m 0 min 0 min 5 W/m 23,0 km/h (4 Bft) 93,62 %
13.09.2017 02:04 13,4 C 13,3 C 11,7 C 85 % 0 lf 1004,4 hPa 0,0 l/m 0 min 0 min 0 W/m 23,0 km/h (4 Bft) 95,74 %
13.09.2017 02:06 13,4 C 13,3 C 11,7 C 85 % 0 lf 1004,3 hPa 0,0 l/m 0 min 0 min 5 W/m 20,9 km/h (4 Bft) 95,74 %
13.09.2017 02:08 13,5 C 13,9 C 11,7 C 84 % 0 lf 1004,2 hPa 0,0 l/m 0 min 0 min 0 W/m 25,1 km/h (4 Bft) 93,62 %
13.09.2017 02:10 13,5 C 13,3 C 11,7 C 84 % 0 lf 1004,1 hPa 0,0 l/m 0 min 0 min 0 W/m 18,8 km/h (3 Bft) 93,48 %
13.09.2017 02:12 13,5 C 13,3 C 11,7 C 84 % 0 lf 1004,0 hPa 0,0 l/m 0 min 0 min 0 W/m 23,0 km/h (4 Bft) 91,49 %
13.09.2017 02:14 13,6 C 13,3 C 12,2 C 84 % 0 lf 1003,9 hPa 0,0 l/m 0 min 0 min 0 W/m 25,1 km/h (4 Bft) 93,62 %
13.09.2017 02:16 13,6 C 13,3 C 12,2 C 84 % 0 lf 1003,7 hPa 0,0 l/m 0 min 0 min 5 W/m 18,8 km/h (3 Bft) 95,74 %
13.09.2017 02:18 13,6 C 13,3 C 12,2 C 84 % 0 lf 1003,6 hPa 0,0 l/m 0 min 0 min 0 W/m 27,2 km/h (4 Bft) 97,87 %
13.09.2017 02:20 13,6 C 13,3 C 12,2 C 84 % 0 lf 1003,5 hPa 0,0 l/m 0 min 0 min 0 W/m 25,1 km/h (4 Bft) 97,87 %
13.09.2017 02:22 13,6 C 13,3 C 12,2 C 84 % 0 lf 1003,5 hPa 0,0 l/m 0 min 0 min 0 W/m 20,9 km/h (4 Bft) 91,30 %
13.09.2017 02:24 13,6 C 13,9 C 12,2 C 83 % 0 lf 1003,5 hPa 0,0 l/m 0 min 0 min 0 W/m 23,0 km/h (4 Bft) 91,49 %
13.09.2017 02:26 13,6 C 13,9 C 12,2 C 83 % 0 lf 1003,4 hPa 0,0 l/m 0 min 0 min 4 W/m 23,0 km/h (4 Bft) 97,87 %
13.09.2017 02:28 13,6 C 13,9 C 12,2 C 83 % 0 lf 1003,3 hPa 0,0 l/m 0 min 0 min 0 W/m 20,9 km/h (4 Bft) 97,87 %
13.09.2017 02:30 13,6 C 13,9 C 12,2 C 83 % 0 lf 1003,1 hPa 0,0 l/m 0 min 0 min 0 W/m 25,1 km/h (4 Bft) 95,74 %
13.09.2017 02:32 13,7 C 13,9 C 12,2 C 84 % 0 lf 1003,0 hPa 0,0 l/m 0 min 0 min 0 W/m 29,3 km/h (5 Bft) 95,65 %
13.09.2017 02:34 13,7 C 13,9 C 12,2 C 83 % 0 lf 1002,9 hPa 0,0 l/m 0 min 0 min 0 W/m 25,1 km/h (4 Bft) 95,74 %
13.09.2017 02:36 13,7 C 13,9 C 12,2 C 83 % 0 lf 1003,0 hPa 0,0 l/m 0 min 0 min 0 W/m 33,5 km/h (5 Bft) 97,87 %
13.09.2017 02:38 13,7 C 13,9 C 12,2 C 83 % 0 lf 1002,9 hPa 0,0 l/m 0 min 0 min 0 W/m 27,2 km/h (4 Bft) 97,87 %
13.09.2017 02:40 13,7 C 13,9 C 12,2 C 83 % 0 lf 1002,8 hPa 0,0 l/m 0 min 0 min 0 W/m 23,0 km/h (4 Bft) 97,87 %
13.09.2017 02:42 13,7 C 13,9 C 12,2 C 83 % 0 lf 1002,8 hPa 0,0 l/m 0 min 0 min 0 W/m 29,3 km/h (5 Bft) 95,74 %
13.09.2017 02:44 13,8 C 13,9 C 12,2 C 83 % 0 lf 1002,7 hPa 0,0 l/m 0 min 0 min 5 W/m 23,0 km/h (4 Bft) 97,83 %
13.09.2017 02:46 13,8 C 13,9 C 12,2 C 83 % 0 lf 1002,7 hPa 0,0 l/m 0 min 0 min 0 W/m 27,2 km/h (4 Bft) 97,87 %
13.09.2017 02:48 13,8 C 13,9 C 12,2 C 83 % 0 lf 1002,7 hPa 0,0 l/m 0 min 0 min 0 W/m 31,4 km/h (5 Bft) 97,87 %
13.09.2017 02:50 13,8 C 13,9 C 12,2 C 83 % 0 lf 1002,4 hPa 0,0 l/m 0 min 0 min 0 W/m 27,2 km/h (4 Bft) 97,87 %
13.09.2017 02:52 13,8 C 13,9 C 12,8 C 82 % 0 lf 1002,3 hPa 0,0 l/m 0 min 0 min 0 W/m 33,5 km/h (5 Bft) 95,74 %
13.09.2017 02:54 13,9 C 13,9 C 12,2 C 82 % 0 lf 1002,3 hPa 0,0 l/m 0 min 0 min 0 W/m 27,2 km/h (4 Bft) 97,87 %
13.09.2017 02:56 13,9 C 13,9 C 12,8 C 82 % 0 lf 1002,3 hPa 0,0 l/m 0 min 0 min 0 W/m 25,1 km/h (4 Bft) 97,83 %
13.09.2017 02:58 13,9 C 13,9 C 12,8 C 82 % 0 lf 1002,0 hPa 0,0 l/m 0 min 0 min 0 W/m 25,1 km/h (4 Bft) 100,00 %
13.09.2017 03:00 14,0 C 13,9 C 12,8 C 82 % 0 lf 1002,0 hPa 0,0 l/m 0 min 0 min 0 W/m 31,4 km/h (5 Bft) 100,00 %
13.09.2017 03:02 14,0 C 13,9 C 12,8 C 82 % 0 lf 1001,9 hPa 0,0 l/m 0 min 0 min 5 W/m 29,3 km/h (5 Bft) 100,00 %
13.09.2017 03:04 14,0 C 13,9 C 12,8 C 82 % 0 lf 1001,8 hPa 0,0 l/m 0 min 0 min 5 W/m 29,3 km/h (5 Bft) 97,87 %
13.09.2017 03:06 14,1 C 13,9 C 12,8 C 82 % 0 lf 1001,7 hPa 0,0 l/m 0 min 0 min 5 W/m 43,9 km/h (6 Bft) 100,00 %
13.09.2017 03:08 14,1 C 14,4 C 12,8 C 81 % 0 lf 1001,6 hPa 0,0 l/m 0 min 0 min 0 W/m 39,7 km/h (6 Bft) 97,83 %
13.09.2017 03:10 14,2 C 14,4 C 12,8 C 81 % 0 lf 1001,5 hPa 0,0 l/m 0 min 0 min 5 W/m 33,5 km/h (5 Bft) 100,00 %
13.09.2017 03:12 14,2 C 13,9 C 12,8 C 81 % 0 lf 1001,5 hPa 0,0 l/m 0 min 0 min 5 W/m 20,9 km/h (4 Bft) 100,00 %
13.09.2017 03:14 14,2 C 13,9 C 12,8 C 81 % 0 lf 1001,4 hPa 0,0 l/m 0 min 0 min 0 W/m 20,9 km/h (4 Bft) 100,00 %
13.09.2017 03:16 14,2 C 13,9 C 12,8 C 81 % 0 lf 1001,4 hPa 0,0 l/m 0 min 0 min 0 W/m 39,7 km/h (6 Bft) 100,00 %
13.09.2017 03:18 14,2 C 13,9 C 12,8 C 81 % 0 lf 1001,3 hPa 0,0 l/m 0 min 0 min 0 W/m 31,4 km/h (5 Bft) 100,00 %
13.09.2017 03:20 14,2 C 14,4 C 12,8 C 81 % 0 lf 1001,2 hPa 0,0 l/m 0 min 0 min 0 W/m 39,7 km/h (6 Bft) 100,00 %
13.09.2017 03:22 14,2 C 13,9 C 12,8 C 81 % 0 lf 1001,1 hPa 0,0 l/m 0 min 0 min 0 W/m 33,5 km/h (5 Bft) 97,87 %
13.09.2017 03:24 14,2 C 13,9 C 12,8 C 81 % 0 lf 1000,9 hPa 0,0 l/m 0 min 0 min 0 W/m 23,0 km/h (4 Bft) 100,00 %
13.09.2017 03:26 14,2 C 13,9 C 12,8 C 81 % 0 lf 1000,9 hPa 0,0 l/m 0 min 0 min 0 W/m 20,9 km/h (4 Bft) 100,00 %
13.09.2017 03:28 14,2 C 13,9 C 12,8 C 81 % 0 lf 1000,9 hPa 0,0 l/m 0 min 0 min 0 W/m 35,6 km/h (5 Bft) 100,00 %
13.09.2017 03:30 14,2 C 14,4 C 12,8 C 81 % 0 lf 1000,8 hPa 0,0 l/m 0 min 0 min 0 W/m 33,5 km/h (5 Bft) 100,00 %
13.09.2017 03:32 14,2 C 14,4 C 12,8 C 81 % 0 lf 1000,8 hPa 0,0 l/m 0 min 0 min 0 W/m 35,6 km/h (5 Bft) 100,00 %
13.09.2017 03:34 14,2 C 14,4 C 12,8 C 80 % 0 lf 1000,9 hPa 0,0 l/m 0 min 0 min 0 W/m 46,0 km/h (6 Bft) 100,00 %
13.09.2017 03:36 14,2 C 14,4 C 12,8 C 80 % 0 lf 1000,8 hPa 0,0 l/m 0 min 0 min 0 W/m 27,2 km/h (4 Bft) 100,00 %
13.09.2017 03:38 14,2 C 14,4 C 12,8 C 80 % 0 lf 1000,8 hPa 0,0 l/m 0 min 0 min 0 W/m 33,5 km/h (5 Bft) 97,87 %
13.09.2017 03:40 14,3 C 14,4 C 12,8 C 80 % 0 lf 1000,9 hPa 0,0 l/m 0 min 0 min 0 W/m 35,6 km/h (5 Bft) 100,00 %
13.09.2017 03:42 14,3 C 14,4 C 12,8 C 80 % 0 lf 1000,9 hPa 0,0 l/m 0 min 0 min 0 W/m 20,9 km/h (4 Bft) 97,87 %
13.09.2017 03:44 14,3 C 14,4 C 12,8 C 80 % 0 lf 1000,9 hPa 0,0 l/m 0 min 0 min 0 W/m 14,6 km/h (3 Bft) 100,00 %
13.09.2017 03:46 14,3 C 14,4 C 12,8 C 79 % 0 lf 1000,9 hPa 0,0 l/m 0 min 0 min 0 W/m 20,9 km/h (4 Bft) 100,00 %
13.09.2017 03:48 14,3 C 14,4 C 12,8 C 79 % 0 lf 1001,0 hPa 0,0 l/m 0 min 0 min 0 W/m 18,8 km/h (3 Bft) 97,87 %
13.09.2017 03:50 14,3 C 14,4 C 12,8 C 79 % 0 lf 1000,9 hPa 0,0 l/m 0 min 0 min 0 W/m 18,8 km/h (3 Bft) 100,00 %
13.09.2017 03:52 14,3 C 14,4 C 12,8 C 79 % 1 lf 1000,8 hPa 0,0 l/m 0 min 0 min 5 W/m 20,9 km/h (4 Bft) 100,00 %
13.09.2017 03:54 14,4 C 13,9 C 12,8 C 79 % 2 lf 1000,8 hPa 0,0 l/m 0 min 2 min 5 W/m 16,7 km/h (3 Bft) 100,00 %
13.09.2017 03:56 14,4 C 13,9 C 12,8 C 79 % 1 lf 1000,8 hPa 0,0 l/m 0 min 2 min 0 W/m 31,4 km/h (5 Bft) 100,00 %
13.09.2017 03:58 14,4 C 14,4 C 12,8 C 79 % 1 lf 1000,8 hPa 0,0 l/m 0 min 2 min 0 W/m 23,0 km/h (4 Bft) 93,62 %
13.09.2017 04:00 14,4 C 13,9 C 12,2 C 79 % 0 lf 1000,7 hPa 0,0 l/m 0 min 2 min 0 W/m 35,6 km/h (5 Bft) 97,87 %
13.09.2017 04:05 14,4 C 13,9 C 12,2 C 79 % 3 lf 1000,3 hPa 0,0 l/m 0 min 5 min 0 W/m 27,2 km/h (4 Bft) 97,50 %
13.09.2017 04:06 14,4 C 13,3 C 11,7 C 80 % 3 lf 1000,3 hPa 0,0 l/m 0 min 1 min 0 W/m 18,8 km/h (3 Bft) 100,00 %
13.09.2017 04:08 14,4 C 12,2 C 11,1 C 80 % 8 lf 1000,3 hPa 0,2 l/m 0 min 2 min 0 W/m 23,0 km/h (4 Bft) 100,00 %
13.09.2017 04:10 14,4 C 11,7 C 10,6 C 81 % 15 lf 1000,4 hPa 0,2 l/m 0 min 2 min 0 W/m 37,7 km/h (5 Bft) 95,74 %
13.09.2017 04:12 14,3 C 11,7 C 10,6 C 82 % 15 lf 1000,2 hPa 0,0 l/m 0 min 2 min 0 W/m 27,2 km/h (4 Bft) 97,87 %
13.09.2017 04:14 14,2 C 11,7 C 10,6 C 82 % 15 lf 1000,3 hPa 0,2 l/m 0 min 2 min 0 W/m 31,4 km/h (5 Bft) 97,87 %
13.09.2017 04:16 14,2 C 11,7 C 10,6 C 83 % 15 lf 1000,1 hPa 0,2 l/m 0 min 2 min 0 W/m 25,1 km/h (4 Bft) 100,00 %
13.09.2017 04:18 14,2 C 11,1 C 10,6 C 84 % 15 lf 1000,1 hPa 0,2 l/m 0 min 2 min 0 W/m 31,4 km/h (5 Bft) 97,83 %
13.09.2017 04:20 14,1 C 11,1 C 10,6 C 84 % 15 lf 1000,0 hPa 0,2 l/m 0 min 2 min 0 W/m 31,4 km/h (5 Bft) 93,62 %
13.09.2017 04:22 13,9 C 11,1 C 10,6 C 85 % 15 lf 999,9 hPa 0,0 l/m 0 min 2 min 0 W/m 31,4 km/h (5 Bft) 93,62 %
13.09.2017 04:24 13,8 C 11,1 C 10,6 C 85 % 15 lf 999,9 hPa 0,2 l/m 0 min 2 min 0 W/m 27,2 km/h (4 Bft) 93,62 %
13.09.2017 04:26 13,7 C 11,1 C 10,6 C 86 % 15 lf 999,8 hPa 0,0 l/m 0 min 2 min 0 W/m 35,6 km/h (5 Bft) 91,49 %
13.09.2017 04:28 13,6 C 11,1 C 10,6 C 86 % 15 lf 999,8 hPa 0,0 l/m 0 min 2 min 0 W/m 39,7 km/h (6 Bft) 95,74 %
13.09.2017 04:30 13,5 C 11,1 C 10,6 C 86 % 15 lf 999,7 hPa 0,0 l/m 0 min 2 min 0 W/m 41,8 km/h (6 Bft) 91,30 %
13.09.2017 04:32 13,4 C 11,1 C 10,6 C 87 % 15 lf 999,7 hPa 0,2 l/m 0 min 2 min 0 W/m 25,1 km/h (4 Bft) 85,11 %
13.09.2017 04:34 13,3 C 11,1 C 10,6 C 87 % 15 lf 999,8 hPa 0,0 l/m 0 min 2 min 0 W/m 37,7 km/h (5 Bft) 89,36 %
13.09.2017 04:36 13,2 C 11,1 C 10,6 C 88 % 15 lf 999,7 hPa 0,0 l/m 0 min 2 min 0 W/m 35,6 km/h (5 Bft) 91,49 %
13.09.2017 04:38 13,2 C 11,1 C 10,6 C 88 % 15 lf 999,6 hPa 0,2 l/m 0 min 2 min 0 W/m 25,1 km/h (4 Bft) 91,49 %
13.09.2017 04:40 13,1 C 11,1 C 10,6 C 88 % 15 lf 999,7 hPa 0,0 l/m 0 min 2 min 0 W/m 35,6 km/h (5 Bft) 89,36 %
13.09.2017 04:42 13,1 C 11,1 C 10,6 C 89 % 15 lf 999,5 hPa 0,2 l/m 0 min 2 min 0 W/m 27,2 km/h (4 Bft) 91,30 %
13.09.2017 04:44 12,9 C 11,1 C 10,6 C 89 % 15 lf 999,4 hPa 0,2 l/m 0 min 2 min 0 W/m 14,6 km/h (3 Bft) 91,49 %
13.09.2017 04:46 12,9 C 11,1 C 10,6 C 89 % 15 lf 999,4 hPa 0,0 l/m 0 min 2 min 0 W/m 27,2 km/h (4 Bft) 91,49 %
13.09.2017 04:48 12,8 C 11,1 C 10,6 C 89 % 15 lf 999,3 hPa 0,2 l/m 0 min 2 min 0 W/m 27,2 km/h (4 Bft) 91,49 %
13.09.2017 04:50 12,8 C 11,1 C 10,6 C 90 % 15 lf 999,2 hPa 0,0 l/m 0 min 2 min 0 W/m 23,0 km/h (4 Bft) 89,36 %
13.09.2017 04:52 12,7 C 11,1 C 10,6 C 90 % 15 lf 999,3 hPa 0,0 l/m 0 min 2 min 0 W/m 37,7 km/h (5 Bft) 93,62 %
13.09.2017 04:54 12,7 C 11,1 C 10,6 C 91 % 15 lf 999,1 hPa 0,0 l/m 0 min 2 min 0 W/m 20,9 km/h (4 Bft) 91,30 %
13.09.2017 04:56 12,6 C 11,1 C 10,6 C 91 % 15 lf 999,1 hPa 0,0 l/m 0 min 2 min 0 W/m 27,2 km/h (4 Bft) 91,49 %
13.09.2017 04:58 12,6 C 11,1 C 10,6 C 91 % 15 lf 999,1 hPa 0,0 l/m 0 min 2 min 0 W/m 18,8 km/h (3 Bft) 93,62 %
13.09.2017 05:00 12,6 C 11,1 C 10,6 C 91 % 15 lf 999,0 hPa 0,0 l/m 0 min 0 min 0 W/m 27,2 km/h (4 Bft) 93,62 %
13.09.2017 05:02 12,6 C 11,1 C 10,6 C 91 % 15 lf 998,8 hPa 0,0 l/m 0 min 0 min 0 W/m 20,9 km/h (4 Bft) 93,62 %
13.09.2017 05:04 12,5 C 11,1 C 10,6 C 92 % 15 lf 998,8 hPa 0,0 l/m 0 min 0 min 0 W/m 31,4 km/h (5 Bft) 93,62 %
13.09.2017 05:06 12,5 C 11,1 C 10,6 C 92 % 15 lf 998,8 hPa 0,0 l/m 0 min 0 min 0 W/m 16,7 km/h (3 Bft) 91,30 %
13.09.2017 05:08 12,5 C 11,1 C 10,6 C 92 % 15 lf 998,7 hPa 0,0 l/m 0 min 0 min 0 W/m 23,0 km/h (4 Bft) 93,62 %
13.09.2017 05:10 12,4 C 11,1 C 10,6 C 92 % 15 lf 998,6 hPa 0,0 l/m 0 min 0 min 0 W/m 29,3 km/h (5 Bft) 91,49 %
13.09.2017 05:12 12,4 C 11,7 C 10,6 C 92 % 15 lf 998,5 hPa 0,0 l/m 0 min 0 min 0 W/m 29,3 km/h (5 Bft) 93,62 %
13.09.2017 05:14 12,4 C 11,7 C 10,6 C 92 % 15 lf 998,6 hPa 0,0 l/m 0 min 0 min 0 W/m 29,3 km/h (5 Bft) 97,87 %
13.09.2017 05:16 12,4 C 11,7 C 10,6 C 92 % 15 lf 998,4 hPa 0,0 l/m 0 min 0 min 0 W/m 25,1 km/h (4 Bft) 97,87 %
13.09.2017 05:18 12,4 C 11,7 C 10,6 C 92 % 15 lf 998,4 hPa 0,0 l/m 0 min 0 min 0 W/m 25,1 km/h (4 Bft) 97,83 %
13.09.2017 05:20 12,4 C 11,7 C 10,6 C 93 % 15 lf 998,4 hPa 0,0 l/m 0 min 0 min 0 W/m 29,3 km/h (5 Bft) 93,62 %
13.09.2017 05:22 12,4 C 11,7 C 10,6 C 93 % 15 lf 998,3 hPa 0,0 l/m 0 min 0 min 0 W/m 23,0 km/h (4 Bft) 95,74 %
13.09.2017 05:24 12,3 C 11,7 C 10,6 C 93 % 15 lf 998,3 hPa 0,0 l/m 0 min 0 min 0 W/m 29,3 km/h (5 Bft) 97,87 %
13.09.2017 05:26 12,3 C 11,7 C 10,6 C 93 % 15 lf 998,3 hPa 0,0 l/m 0 min 0 min 5 W/m 39,7 km/h (6 Bft) 95,74 %
13.09.2017 05:28 12,3 C 11,7 C 10,6 C 93 % 15 lf 998,2 hPa 0,0 l/m 0 min 0 min 5 W/m 39,7 km/h (6 Bft) 100,00 %
13.09.2017 05:30 12,3 C 11,7 C 10,6 C 93 % 15 lf 998,1 hPa 0,0 l/m 0 min 0 min 5 W/m 35,6 km/h (5 Bft) 100,00 %
13.09.2017 05:32 12,3 C 11,7 C 10,6 C 93 % 15 lf 998,0 hPa 0,0 l/m 0 min 2 min 5 W/m 37,7 km/h (5 Bft) 100,00 %
13.09.2017 05:34 12,3 C 11,7 C 10,6 C 93 % 15 lf 997,9 hPa 0,0 l/m 0 min 0 min 5 W/m 23,0 km/h (4 Bft) 95,74 %
13.09.2017 05:36 12,4 C 11,7 C 10,6 C 93 % 15 lf 997,8 hPa 0,0 l/m 0 min 0 min 5 W/m 37,7 km/h (5 Bft) 97,87 %
13.09.2017 05:38 12,3 C 11,7 C 10,6 C 93 % 15 lf 997,8 hPa 0,0 l/m 0 min 0 min 5 W/m 37,7 km/h (5 Bft) 100,00 %
13.09.2017 05:40 12,4 C 11,7 C 10,6 C 93 % 15 lf 997,8 hPa 0,0 l/m 0 min 2 min 5 W/m 31,4 km/h (5 Bft) 100,00 %
13.09.2017 05:42 12,4 C 11,7 C 10,6 C 93 % 15 lf 997,8 hPa 0,0 l/m 0 min 2 min 5 W/m 50,2 km/h (7 Bft) 100,00 %
13.09.2017 05:44 12,4 C 11,7 C 10,6 C 93 % 15 lf 997,6 hPa 0,0 l/m 0 min 2 min 5 W/m 33,5 km/h (5 Bft) 100,00 %
13.09.2017 05:46 12,4 C 11,7 C 10,6 C 93 % 15 lf 997,7 hPa 0,0 l/m 0 min 0 min 5 W/m 29,3 km/h (5 Bft) 97,87 %
13.09.2017 05:48 12,4 C 11,7 C 10,6 C 93 % 15 lf 997,6 hPa 0,0 l/m 0 min 0 min 5 W/m 29,3 km/h (5 Bft) 100,00 %
13.09.2017 05:50 12,4 C 11,7 C 10,6 C 93 % 15 lf 997,6 hPa 0,2 l/m 0 min 2 min 5 W/m 37,7 km/h (5 Bft) 100,00 %
13.09.2017 05:52 12,4 C 11,7 C 10,6 C 93 % 15 lf 997,6 hPa 0,0 l/m 0 min 2 min 5 W/m 33,5 km/h (5 Bft) 100,00 %
13.09.2017 05:54 12,4 C 11,7 C 10,6 C 93 % 15 lf 997,4 hPa 0,0 l/m 0 min 2 min 5 W/m 29,3 km/h (5 Bft) 100,00 %
13.09.2017 05:56 12,5 C 11,7 C 10,6 C 93 % 15 lf 997,3 hPa 0,0 l/m 0 min 2 min 5 W/m 29,3 km/h (5 Bft) 100,00 %
13.09.2017 05:58 12,5 C 11,7 C 10,6 C 93 % 15 lf 997,4 hPa 0,0 l/m 0 min 2 min 5 W/m 33,5 km/h (5 Bft) 100,00 %
13.09.2017 06:00 12,5 C 11,7 C 10,6 C 93 % 15 lf 997,3 hPa 0,0 l/m 0 min 2 min 5 W/m 35,6 km/h (5 Bft) 100,00 %
13.09.2017 06:02 12,6 C 11,7 C 10,6 C 93 % 15 lf 997,2 hPa 0,0 l/m 0 min 2 min 5 W/m 33,5 km/h (5 Bft) 100,00 %
13.09.2017 06:04 12,6 C 11,7 C 10,6 C 93 % 15 lf 997,3 hPa 0,0 l/m 0 min 2 min 5 W/m 52,3 km/h (7 Bft) 100,00 %
13.09.2017 06:06 12,6 C 11,7 C 10,6 C 93 % 15 lf 997,2 hPa 0,0 l/m 0 min 2 min 5 W/m 35,6 km/h (5 Bft) 97,87 %
13.09.2017 06:10 12,7 C 11,7 C 10,6 C 93 % 15 lf 997,1 hPa 0,0 l/m 0 min 4 min 5 W/m 35,6 km/h (5 Bft) 98,94 %
13.09.2017 06:12 12,7 C 11,7 C 10,6 C 93 % 15 lf 997,0 hPa 0,0 l/m 0 min 2 min 5 W/m 46,0 km/h (6 Bft) 100,00 %
13.09.2017 06:14 12,7 C 11,7 C 10,6 C 93 % 15 lf 997,0 hPa 0,0 l/m 0 min 2 min 5 W/m 23,0 km/h (4 Bft) 97,87 %
13.09.2017 06:16 12,8 C 11,7 C 11,1 C 93 % 15 lf 997,0 hPa 0,0 l/m 0 min 2 min 5 W/m 35,6 km/h (5 Bft) 97,83 %
13.09.2017 06:18 12,8 C 11,7 C 11,1 C 93 % 15 lf 996,9 hPa 0,0 l/m 0 min 2 min 5 W/m 35,6 km/h (5 Bft) 95,74 %
13.09.2017 06:20 12,8 C 11,7 C 11,1 C 93 % 15 lf 997,0 hPa 0,0 l/m 0 min 2 min 4 W/m 31,4 km/h (5 Bft) 97,87 %
13.09.2017 06:22 12,8 C 11,7 C 11,1 C 93 % 15 lf 996,9 hPa 0,0 l/m 0 min 2 min 0 W/m 52,3 km/h (7 Bft) 97,87 %
13.09.2017 06:24 12,9 C 11,7 C 11,1 C 93 % 15 lf 996,9 hPa 0,0 l/m 0 min 2 min 0 W/m 52,3 km/h (7 Bft) 97,87 %
13.09.2017 06:26 12,9 C 11,7 C 11,1 C 93 % 15 lf 996,9 hPa 0,0 l/m 0 min 2 min 0 W/m 37,7 km/h (5 Bft) 95,74 %
13.09.2017 06:28 12,9 C 12,2 C 11,1 C 93 % 15 lf 997,0 hPa 0,0 l/m 0 min 2 min 0 W/m 37,7 km/h (5 Bft) 95,65 %
13.09.2017 06:30 12,9 C 12,2 C 11,1 C 93 % 15 lf 996,8 hPa 0,0 l/m 0 min 2 min 0 W/m 39,7 km/h (6 Bft) 95,74 %
13.09.2017 06:32 12,9 C 12,2 C 11,1 C 93 % 15 lf 996,6 hPa 0,0 l/m 0 min 2 min 0 W/m 27,2 km/h (4 Bft) 97,87 %
13.09.2017 06:34 12,9 C 12,2 C 11,1 C 93 % 15 lf 996,5 hPa 0,0 l/m 0 min 2 min 0 W/m 23,0 km/h (4 Bft) 97,87 %
13.09.2017 06:36 12,9 C 12,2 C 11,1 C 93 % 15 lf 996,6 hPa 0,0 l/m 0 min 0 min 0 W/m 25,1 km/h (4 Bft) 97,87 %
13.09.2017 06:38 13,0 C 12,2 C 11,1 C 93 % 15 lf 996,5 hPa 0,0 l/m 0 min 2 min 0 W/m 41,8 km/h (6 Bft) 97,87 %
13.09.2017 06:40 13,1 C 12,2 C 11,1 C 93 % 15 lf 996,5 hPa 0,0 l/m 0 min 2 min 0 W/m 48,1 km/h (6 Bft) 97,83 %
13.09.2017 06:42 13,1 C 12,2 C 11,1 C 93 % 14 lf 996,5 hPa 0,0 l/m 0 min 2 min 0 W/m 50,2 km/h (7 Bft) 97,87 %
13.09.2017 06:44 13,2 C 12,2 C 11,1 C 93 % 11 lf 996,5 hPa 0,0 l/m 0 min 2 min 0 W/m 43,9 km/h (6 Bft) 100,00 %
13.09.2017 06:46 13,2 C 12,2 C 11,1 C 93 % 9 lf 996,4 hPa 0,0 l/m 0 min 2 min 0 W/m 37,7 km/h (5 Bft) 100,00 %
13.09.2017 06:48 13,3 C 12,2 C 11,1 C 93 % 5 lf 996,7 hPa 0,0 l/m 0 min 2 min 0 W/m 41,8 km/h (6 Bft) 100,00 %
13.09.2017 06:50 13,3 C 12,2 C 11,1 C 93 % 3 lf 996,5 hPa 0,0 l/m 0 min 2 min 0 W/m 37,7 km/h (5 Bft) 100,00 %
13.09.2017 06:52 13,3 C 12,8 C 11,7 C 93 % 2 lf 996,7 hPa 0,0 l/m 0 min 2 min 0 W/m 50,2 km/h (7 Bft) 100,00 %
13.09.2017 06:54 13,4 C 12,8 C 11,7 C 92 % 0 lf 996,4 hPa 0,0 l/m 0 min 2 min 0 W/m 31,4 km/h (5 Bft) 100,00 %
13.09.2017 06:56 13,4 C 12,8 C 11,7 C 93 % 0 lf 996,3 hPa 0,0 l/m 0 min 2 min 0 W/m 41,8 km/h (6 Bft) 97,87 %
13.09.2017 06:58 13,4 C 12,8 C 11,7 C 92 % 2 lf 996,4 hPa 0,0 l/m 0 min 2 min 0 W/m 46,0 km/h (6 Bft) 97,87 %
13.09.2017 07:00 13,4 C 12,8 C 11,7 C 92 % 1 lf 996,3 hPa 0,0 l/m 0 min 2 min 0 W/m 46,0 km/h (6 Bft) 100,00 %
13.09.2017 07:02 13,5 C 12,8 C 11,7 C 92 % 0 lf 996,2 hPa 0,0 l/m 0 min 2 min 0 W/m 39,7 km/h (6 Bft) 95,65 %
13.09.2017 07:04 13,6 C 12,8 C 11,7 C 92 % 0 lf 996,2 hPa 0,0 l/m 0 min 2 min 0 W/m 43,9 km/h (6 Bft) 100,00 %
13.09.2017 07:06 13,6 C 12,8 C 11,7 C 92 % 0 lf 996,3 hPa 0,0 l/m 0 min 2 min 1 W/m 46,0 km/h (6 Bft) 97,87 %
13.09.2017 07:08 13,6 C 12,8 C 11,7 C 92 % 0 lf 996,3 hPa 0,0 l/m 0 min 2 min 5 W/m 54,4 km/h (7 Bft) 100,00 %
13.09.2017 07:10 13,7 C 12,8 C 11,7 C 92 % 0 lf 996,5 hPa 0,0 l/m 0 min 2 min 5 W/m 46,0 km/h (6 Bft) 100,00 %
13.09.2017 07:12 13,7 C 12,8 C 11,7 C 92 % 0 lf 996,2 hPa 0,0 l/m 0 min 2 min 5 W/m 33,5 km/h (5 Bft) 97,87 %
13.09.2017 07:14 13,7 C 12,8 C 11,7 C 92 % 0 lf 996,2 hPa 0,0 l/m 0 min 2 min 6 W/m 37,7 km/h (5 Bft) 95,65 %
13.09.2017 07:16 13,8 C 12,8 C 11,7 C 92 % 0 lf 996,3 hPa 0,0 l/m 0 min 2 min 7 W/m 48,1 km/h (6 Bft) 95,74 %
13.09.2017 07:18 13,9 C 13,3 C 11,7 C 92 % 0 lf 996,4 hPa 0,0 l/m 0 min 0 min 7 W/m 48,1 km/h (6 Bft) 95,74 %
13.09.2017 07:20 13,9 C 13,3 C 11,7 C 92 % 0 lf 996,3 hPa 0,0 l/m 0 min 0 min 9 W/m 43,9 km/h (6 Bft) 93,62 %
13.09.2017 07:22 13,9 C 12,8 C 11,7 C 91 % 3 lf 996,3 hPa 0,0 l/m 0 min 2 min 7 W/m 29,3 km/h (5 Bft) 95,74 %
13.09.2017 07:24 14,0 C 12,8 C 11,7 C 92 % 2 lf 996,3 hPa 0,0 l/m 0 min 0 min 5 W/m 48,1 km/h (6 Bft) 95,74 %
13.09.2017 07:26 14,1 C 12,8 C 11,7 C 92 % 2 lf 996,5 hPa 0,0 l/m 0 min 2 min 5 W/m 50,2 km/h (7 Bft) 93,48 %
13.09.2017 07:28 14,1 C 12,8 C 11,7 C 92 % 2 lf 996,4 hPa 0,0 l/m 0 min 2 min 7 W/m 35,6 km/h (5 Bft) 95,74 %
13.09.2017 07:30 14,2 C 12,8 C 11,7 C 92 % 2 lf 996,2 hPa 0,0 l/m 0 min 2 min 11 W/m 33,5 km/h (5 Bft) 96,00 %
13.09.2017 07:32 14,2 C 12,8 C 11,7 C 92 % 15 lf 996,2 hPa 0,0 l/m 0 min 2 min 13 W/m 52,3 km/h (7 Bft) 95,74 %
13.09.2017 07:34 14,2 C 12,8 C 11,7 C 92 % 15 lf 996,4 hPa 0,2 l/m 0 min 2 min 11 W/m 31,4 km/h (5 Bft) 95,74 %
13.09.2017 07:36 14,2 C 12,8 C 11,7 C 92 % 15 lf 996,2 hPa 0,0 l/m 0 min 2 min 9 W/m 43,9 km/h (6 Bft) 93,48 %
13.09.2017 07:38 14,1 C 12,8 C 11,7 C 92 % 15 lf 996,2 hPa 0,0 l/m 0 min 2 min 9 W/m 39,7 km/h (6 Bft) 95,74 %
13.09.2017 07:40 14,1 C 12,8 C 11,7 C 92 % 15 lf 996,2 hPa 0,0 l/m 0 min 2 min 8 W/m 27,2 km/h (4 Bft) 93,62 %
13.09.2017 07:42 14,1 C 12,8 C 11,7 C 92 % 15 lf 996,3 hPa 0,0 l/m 0 min 2 min 8 W/m 41,8 km/h (6 Bft) 93,62 %
13.09.2017 07:44 14,1 C 12,8 C 11,7 C 92 % 15 lf 996,2 hPa 0,0 l/m 0 min 2 min 7 W/m 33,5 km/h (5 Bft) 95,74 %
13.09.2017 07:46 14,0 C 12,8 C 11,7 C 92 % 15 lf 996,3 hPa 0,0 l/m 0 min 2 min 10 W/m 56,5 km/h (7 Bft) 95,65 %
13.09.2017 07:48 14,0 C 12,8 C 11,7 C 93 % 15 lf 996,4 hPa 0,0 l/m 0 min 2 min 15 W/m 48,1 km/h (6 Bft) 95,74 %
13.09.2017 07:50 14,0 C 12,8 C 12,2 C 93 % 15 lf 996,5 hPa 0,0 l/m 0 min 2 min 20 W/m 35,6 km/h (5 Bft) 95,74 %
13.09.2017 07:52 14,0 C 13,3 C 12,2 C 93 % 15 lf 996,5 hPa 0,0 l/m 0 min 2 min 33 W/m 71,1 km/h (8 Bft) 89,36 %
13.09.2017 07:54 14,1 C 13,3 C 12,2 C 93 % 15 lf 996,5 hPa 0,0 l/m 0 min 2 min 36 W/m 56,5 km/h (7 Bft) 89,36 %
13.09.2017 07:56 14,2 C 13,3 C 12,2 C 93 % 15 lf 996,5 hPa 0,0 l/m 0 min 2 min 23 W/m 56,5 km/h (7 Bft) 95,74 %
13.09.2017 07:58 14,2 C 13,3 C 12,2 C 93 % 15 lf 996,6 hPa 0,0 l/m 0 min 2 min 19 W/m 50,2 km/h (7 Bft) 93,48 %
13.09.2017 08:00 14,2 C 13,3 C 12,2 C 93 % 15 lf 996,6 hPa 0,0 l/m 0 min 2 min 22 W/m 54,4 km/h (7 Bft) 95,74 %
13.09.2017 08:02 14,2 C 13,3 C 12,2 C 93 % 15 lf 996,6 hPa 0,2 l/m 0 min 2 min 29 W/m 52,3 km/h (7 Bft) 97,87 %
13.09.2017 08:04 14,2 C 13,3 C 12,2 C 93 % 15 lf 996,6 hPa 0,0 l/m 0 min 2 min 32 W/m 54,4 km/h (7 Bft) 93,62 %
13.09.2017 08:06 14,2 C 13,3 C 12,2 C 93 % 15 lf 996,8 hPa 0,0 l/m 0 min 2 min 26 W/m 50,2 km/h (7 Bft) 95,74 %
13.09.2017 08:08 14,2 C 13,3 C 12,2 C 93 % 15 lf 996,9 hPa 0,0 l/m 0 min 2 min 22 W/m 41,8 km/h (6 Bft) 97,87 %
13.09.2017 08:10 14,2 C 13,3 C 12,2 C 93 % 15 lf 996,9 hPa 0,0 l/m 0 min 2 min 26 W/m 46,0 km/h (6 Bft) 97,83 %
13.09.2017 08:12 14,2 C 13,3 C 12,2 C 93 % 15 lf 996,8 hPa 0,0 l/m 0 min 2 min 44 W/m 52,3 km/h (7 Bft) 89,36 %
13.09.2017 08:14 14,2 C 13,3 C 12,2 C 93 % 15 lf 996,5 hPa 0,0 l/m 0 min 2 min 65 W/m 33,5 km/h (5 Bft) 95,74 %
13.09.2017 08:16 14,2 C 13,3 C 12,2 C 93 % 15 lf 996,4 hPa 0,0 l/m 0 min 2 min 79 W/m 43,9 km/h (6 Bft) 95,74 %
13.09.2017 08:18 14,2 C 13,3 C 12,2 C 93 % 15 lf 996,4 hPa 0,0 l/m 0 min 2 min 63 W/m 35,6 km/h (5 Bft) 95,74 %
13.09.2017 08:20 14,2 C 13,3 C 12,2 C 93 % 14 lf 996,4 hPa 0,0 l/m 0 min 2 min 58 W/m 37,7 km/h (5 Bft) 91,49 %
13.09.2017 08:22 14,2 C 13,3 C 12,2 C 93 % 13 lf 996,4 hPa 0,0 l/m 0 min 2 min 87 W/m 35,6 km/h (5 Bft) 93,48 %
13.09.2017 08:24 14,2 C 13,3 C 12,2 C 93 % 10 lf 996,4 hPa 0,0 l/m 0 min 0 min 86 W/m 35,6 km/h (5 Bft) 93,62 %
13.09.2017 08:26 14,2 C 13,9 C 12,2 C 93 % 7 lf 996,5 hPa 0,0 l/m 0 min 2 min 97 W/m 37,7 km/h (5 Bft) 91,49 %
13.09.2017 08:28 14,2 C 13,9 C 12,2 C 93 % 4 lf 996,6 hPa 0,0 l/m 2 min 0 min 127 W/m 35,6 km/h (5 Bft) 95,74 %
13.09.2017 08:30 14,2 C 14,4 C 12,2 C 93 % 3 lf 996,5 hPa 0,0 l/m 2 min 0 min 158 W/m 43,9 km/h (6 Bft) 97,87 %
13.09.2017 08:32 14,3 C 14,4 C 12,2 C 93 % 1 lf 996,5 hPa 0,0 l/m 2 min 0 min 145 W/m 46,0 km/h (6 Bft) 93,62 %
13.09.2017 08:34 14,3 C 13,9 C 12,2 C 93 % 0 lf 996,5 hPa 0,0 l/m 0 min 0 min 88 W/m 33,5 km/h (5 Bft) 95,65 %
13.09.2017 08:36 14,4 C 14,4 C 12,2 C 93 % 0 lf 996,4 hPa 0,0 l/m 2 min 0 min 116 W/m 43,9 km/h (6 Bft) 97,87 %
13.09.2017 08:38 14,4 C 14,4 C 12,2 C 93 % 0 lf 996,4 hPa 0,0 l/m 2 min 2 min 131 W/m 43,9 km/h (6 Bft) 97,87 %
13.09.2017 08:40 14,5 C 14,4 C 12,8 C 92 % 0 lf 996,3 hPa 0,0 l/m 2 min 2 min 176 W/m 56,5 km/h (7 Bft) 97,87 %
13.09.2017 08:42 14,6 C 14,4 C 12,8 C 92 % 0 lf 996,3 hPa 0,0 l/m 2 min 0 min 137 W/m 39,7 km/h (6 Bft) 95,74 %
13.09.2017 08:44 14,6 C 15,6 C 12,8 C 92 % 0 lf 996,3 hPa 0,0 l/m 2 min 0 min 139 W/m 60,7 km/h (7 Bft) 95,74 %
13.09.2017 08:46 14,7 C 16,1 C 12,8 C 92 % 0 lf 996,1 hPa 0,0 l/m 2 min 0 min 195 W/m 43,9 km/h (6 Bft) 97,83 %
13.09.2017 08:48 14,8 C 16,7 C 12,8 C 92 % 0 lf 996,1 hPa 0,0 l/m 2 min 0 min 204 W/m 60,7 km/h (7 Bft) 97,87 %
13.09.2017 08:50 14,9 C 16,7 C 12,8 C 92 % 0 lf 996,0 hPa 0,0 l/m 0 min 0 min 123 W/m 60,7 km/h (7 Bft) 97,87 %
13.09.2017 08:52 14,9 C 17,8 C 12,8 C 91 % 0 lf 996,0 hPa 0,0 l/m 2 min 0 min 199 W/m 43,9 km/h (6 Bft) 97,87 %
13.09.2017 08:54 15,0 C 18,3 C 12,8 C 91 % 0 lf 996,0 hPa 0,0 l/m 2 min 0 min 242 W/m 43,9 km/h (6 Bft) 95,74 %
13.09.2017 08:56 15,1 C 18,3 C 12,8 C 91 % 0 lf 995,9 hPa 0,0 l/m 2 min 0 min 244 W/m 58,6 km/h (7 Bft) 97,83 %
13.09.2017 08:58 15,2 C 18,3 C 12,8 C 91 % 0 lf 995,9 hPa 0,0 l/m 2 min 0 min 232 W/m 64,9 km/h (8 Bft) 97,87 %
13.09.2017 09:00 15,3 C 18,3 C 12,8 C 90 % 0 lf 995,9 hPa 0,0 l/m 2 min 0 min 214 W/m 46,0 km/h (6 Bft) 97,87 %
13.09.2017 09:02 15,4 C 18,3 C 13,3 C 90 % 0 lf 995,9 hPa 0,0 l/m 2 min 0 min 229 W/m 48,1 km/h (6 Bft) 95,74 %
13.09.2017 09:04 15,4 C 18,9 C 13,3 C 89 % 0 lf 996,0 hPa 0,0 l/m 2 min 0 min 252 W/m 52,3 km/h (7 Bft) 95,74 %
13.09.2017 09:06 15,5 C 18,9 C 13,3 C 88 % 0 lf 996,0 hPa 0,0 l/m 2 min 0 min 228 W/m 39,7 km/h (6 Bft) 97,87 %
13.09.2017 09:08 15,6 C 18,9 C 13,3 C 88 % 0 lf 996,0 hPa 0,0 l/m 2 min 0 min 226 W/m 46,0 km/h (6 Bft) 97,83 %
13.09.2017 09:10 15,7 C 18,3 C 13,3 C 87 % 0 lf 995,9 hPa 0,0 l/m 2 min 0 min 221 W/m 52,3 km/h (7 Bft) 97,87 %
13.09.2017 09:12 15,7 C 18,9 C 13,3 C 86 % 0 lf 995,8 hPa 0,0 l/m 2 min 0 min 239 W/m 58,6 km/h (7 Bft) 93,62 %
13.09.2017 09:14 15,8 C 18,9 C 13,3 C 86 % 0 lf 995,8 hPa 0,0 l/m 2 min 0 min 255 W/m 46,0 km/h (6 Bft) 97,87 %
13.09.2017 09:16 15,9 C 19,4 C 13,3 C 86 % 0 lf 996,1 hPa 0,0 l/m 2 min 0 min 272 W/m 50,2 km/h (7 Bft) 100,00 %
13.09.2017 09:18 16,0 C 20,0 C 13,3 C 85 % 0 lf 996,1 hPa 0,0 l/m 2 min 0 min 313 W/m 39,7 km/h (6 Bft) 95,74 %
13.09.2017 09:20 16,1 C 20,6 C 13,9 C 85 % 0 lf 996,2 hPa 0,0 l/m 2 min 0 min 330 W/m 39,7 km/h (6 Bft) 100,00 %
13.09.2017 09:22 16,1 C 20,6 C 13,9 C 85 % 0 lf 996,3 hPa 0,0 l/m 2 min 0 min 342 W/m 60,7 km/h (7 Bft) 95,74 %
13.09.2017 09:24 16,2 C 20,6 C 13,9 C 84 % 0 lf 996,3 hPa 0,0 l/m 2 min 0 min 364 W/m 48,1 km/h (6 Bft) 100,00 %
13.09.2017 09:26 16,3 C 20,6 C 13,9 C 84 % 0 lf 996,2 hPa 0,0 l/m 2 min 0 min 383 W/m 35,6 km/h (5 Bft) 95,74 %
13.09.2017 09:28 16,4 C 20,0 C 14,4 C 84 % 0 lf 996,4 hPa 0,0 l/m 2 min 0 min 399 W/m 50,2 km/h (7 Bft) 100,00 %
13.09.2017 09:30 16,5 C 18,9 C 14,4 C 83 % 0 lf 996,4 hPa 0,0 l/m 2 min 0 min 205 W/m 50,2 km/h (7 Bft) 100,00 %
13.09.2017 09:32 16,6 C 18,3 C 14,4 C 83 % 0 lf 996,3 hPa 0,0 l/m 0 min 0 min 163 W/m 46,0 km/h (6 Bft) 100,00 %
13.09.2017 09:34 16,6 C 17,8 C 13,9 C 82 % 0 lf 996,3 hPa 0,0 l/m 0 min 0 min 132 W/m 58,6 km/h (7 Bft) 100,00 %
13.09.2017 09:36 16,6 C 17,2 C 13,9 C 82 % 0 lf 996,7 hPa 0,0 l/m 0 min 0 min 96 W/m 54,4 km/h (7 Bft) 100,00 %
13.09.2017 09:38 16,6 C 17,2 C 14,4 C 81 % 0 lf 996,7 hPa 0,0 l/m 0 min 0 min 134 W/m 52,3 km/h (7 Bft) 95,74 %
13.09.2017 09:40 16,6 C 17,2 C 14,4 C 81 % 0 lf 996,9 hPa 0,0 l/m 0 min 0 min 128 W/m 64,9 km/h (8 Bft) 100,00 %
13.09.2017 09:42 16,6 C 17,2 C 15,0 C 81 % 0 lf 996,7 hPa 0,0 l/m 0 min 0 min 150 W/m 75,3 km/h (9 Bft) 95,74 %
13.09.2017 09:44 16,6 C 17,2 C 15,0 C 80 % 0 lf 996,7 hPa 0,0 l/m 0 min 0 min 142 W/m 54,9 km/h (7 Bft) 100,00 %
13.09.2017 09:46 16,6 C 17,2 C 15,0 C 80 % 0 lf 996,5 hPa 0,0 l/m 0 min 0 min 137 W/m 46,0 km/h (6 Bft) 95,74 %
13.09.2017 09:48 16,6 C 17,2 C 15,0 C 80 % 0 lf 996,7 hPa 0,0 l/m 0 min 0 min 104 W/m 52,3 km/h (7 Bft) 100,00 %
13.09.2017 09:50 16,6 C 16,7 C 14,4 C 80 % 0 lf 996,9 hPa 0,0 l/m 0 min 0 min 96 W/m 46,0 km/h (6 Bft) 97,87 %
13.09.2017 09:52 16,6 C 16,7 C 14,4 C 80 % 0 lf 996,8 hPa 0,0 l/m 0 min 0 min 97 W/m 56,5 km/h (7 Bft) 97,87 %
13.09.2017 09:54 16,6 C 16,7 C 15,0 C 80 % 0 lf 996,8 hPa 0,0 l/m 0 min 0 min 119 W/m 56,5 km/h (7 Bft) 97,87 %
13.09.2017 09:56 16,6 C 16,7 C 15,0 C 80 % 0 lf 996,8 hPa 0,0 l/m 0 min 0 min 126 W/m 50,2 km/h (7 Bft) 97,83 %
13.09.2017 09:58 16,5 C 16,7 C 15,0 C 80 % 0 lf 996,9 hPa 0,0 l/m 0 min 0 min 124 W/m 54,4 km/h (7 Bft) 100,00 %
13.09.2017 10:00 16,5 C 17,2 C 15,0 C 80 % 0 lf 996,9 hPa 0,0 l/m 0 min 0 min 146 W/m 35,6 km/h (5 Bft) 100,00 %
13.09.2017 10:02 16,5 C 17,2 C 15,0 C 80 % 0 lf 997,0 hPa 0,0 l/m 0 min 0 min 126 W/m 54,4 km/h (7 Bft) 95,74 %
13.09.2017 10:04 16,5 C 16,7 C 15,0 C 79 % 0 lf 996,7 hPa 0,0 l/m 0 min 0 min 132 W/m 60,7 km/h (7 Bft) 95,74 %
13.09.2017 10:06 16,5 C 17,2 C 15,0 C 78 % 0 lf 997,0 hPa 0,0 l/m 0 min 0 min 124 W/m 54,4 km/h (7 Bft) 95,65 %
13.09.2017 10:08 16,5 C 17,2 C 15,0 C 78 % 0 lf 997,3 hPa 0,0 l/m 0 min 0 min 117 W/m 64,9 km/h (8 Bft) 95,74 %
13.09.2017 10:10 16,6 C 17,2 C 15,0 C 78 % 0 lf 997,0 hPa 0,0 l/m 0 min 0 min 173 W/m 46,0 km/h (6 Bft) 91,49 %
13.09.2017 10:12 16,6 C 18,9 C 16,1 C 79 % 0 lf 996,9 hPa 0,0 l/m 0 min 0 min 211 W/m 35,6 km/h (5 Bft) 93,62 %
13.09.2017 10:14 16,7 C 20,6 C 16,7 C 79 % 0 lf 996,8 hPa 0,0 l/m 0 min 0 min 211 W/m 60,7 km/h (7 Bft) 95,74 %
13.09.2017 10:16 16,8 C 20,6 C 17,2 C 79 % 0 lf 997,0 hPa 0,0 l/m 2 min 0 min 410 W/m 54,4 km/h (7 Bft) 93,62 %
13.09.2017 10:18 16,9 C 20,0 C 16,7 C 79 % 0 lf 997,1 hPa 0,0 l/m 2 min 0 min 412 W/m 62,8 km/h (8 Bft) 91,49 %
13.09.2017 10:20 16,9 C 20,6 C 17,2 C 79 % 0 lf 997,2 hPa 0,0 l/m 2 min 0 min 446 W/m 46,0 km/h (6 Bft) 93,48 %
13.09.2017 10:22 17,1 C 20,0 C 17,8 C 78 % 0 lf 997,2 hPa 0,0 l/m 2 min 0 min 475 W/m 60,7 km/h (7 Bft) 91,49 %
13.09.2017 10:24 17,1 C 20,6 C 17,8 C 78 % 0 lf 997,1 hPa 0,0 l/m 2 min 0 min 507 W/m 54,4 km/h (7 Bft) 91,49 %
13.09.2017 10:26 17,2 C 21,7 C 18,9 C 77 % 0 lf 996,9 hPa 0,0 l/m 2 min 0 min 542 W/m 52,3 km/h (7 Bft) 91,49 %
13.09.2017 10:28 17,3 C 22,2 C 19,4 C 77 % 0 lf 997,0 hPa 0,0 l/m 2 min 0 min 572 W/m 52,3 km/h (7 Bft) 95,74 %
13.09.2017 10:30 17,4 C 21,7 C 18,9 C 77 % 0 lf 997,1 hPa 0,0 l/m 2 min 0 min 576 W/m 62,8 km/h (8 Bft) 93,48 %
13.09.2017 10:32 17,5 C 21,7 C 18,9 C 76 % 0 lf 997,0 hPa 0,0 l/m 2 min 0 min 624 W/m 73,2 km/h (8 Bft) 89,36 %
13.09.2017 10:34 17,6 C 21,7 C 18,9 C 76 % 0 lf 997,1 hPa 0,0 l/m 2 min 0 min 640 W/m 43,9 km/h (6 Bft) 91,49 %
13.09.2017 10:36 17,6 C 21,7 C 19,4 C 77 % 0 lf 997,1 hPa 0,0 l/m 2 min 0 min 617 W/m 64,9 km/h (8 Bft) 89,36 %
13.09.2017 10:38 17,7 C 20,0 C 17,8 C 76 % 0 lf 997,3 hPa 0,0 l/m 2 min 0 min 625 W/m 62,8 km/h (8 Bft) 93,62 %
13.09.2017 10:40 17,6 C 20,6 C 17,8 C 75 % 0 lf 997,0 hPa 0,0 l/m 2 min 0 min 658 W/m 54,4 km/h (7 Bft) 93,62 %
13.09.2017 10:42 17,6 C 20,0 C 17,2 C 75 % 0 lf 997,3 hPa 0,0 l/m 2 min 0 min 646 W/m 43,9 km/h (6 Bft) 93,48 %
13.09.2017 10:44 17,6 C 20,0 C 17,2 C 75 % 0 lf 997,3 hPa 0,0 l/m 2 min 0 min 675 W/m 64,9 km/h (8 Bft) 95,74 %
13.09.2017 10:46 17,6 C 20,0 C 17,2 C 75 % 0 lf 997,3 hPa 0,0 l/m 2 min 0 min 597 W/m 58,6 km/h (7 Bft) 93,62 %
13.09.2017 10:48 17,6 C 21,1 C 17,8 C 75 % 0 lf 997,1 hPa 0,0 l/m 2 min 0 min 560 W/m 48,1 km/h (6 Bft) 93,62 %
13.09.2017 10:50 17,6 C 21,1 C 17,8 C 75 % 0 lf 997,3 hPa 0,0 l/m 2 min 0 min 348 W/m 41,8 km/h (6 Bft) 95,74 %
13.09.2017 10:52 17,7 C 22,2 C 17,8 C 75 % 0 lf 997,4 hPa 0,0 l/m 2 min 0 min 386 W/m 41,8 km/h (6 Bft) 93,62 %
13.09.2017 10:54 17,7 C 21,1 C 18,3 C 75 % 0 lf 997,3 hPa 0,0 l/m 2 min 0 min 561 W/m 50,2 km/h (7 Bft) 95,65 %
13.09.2017 10:56 17,7 C 20,6 C 18,3 C 75 % 0 lf 997,3 hPa 0,0 l/m 2 min 0 min 561 W/m 43,9 km/h (6 Bft) 97,87 %
13.09.2017 10:58 17,7 C 20,0 C 17,8 C 75 % 0 lf 997,5 hPa 0,0 l/m 2 min 0 min 439 W/m 48,1 km/h (6 Bft) 100,00 %
13.09.2017 11:00 17,7 C 19,4 C 17,8 C 75 % 0 lf 997,6 hPa 0,0 l/m 0 min 0 min 225 W/m 50,2 km/h (7 Bft) 97,87 %
13.09.2017 11:02 17,7 C 20,0 C 18,3 C 74 % 0 lf 997,6 hPa 0,0 l/m 2 min 0 min 318 W/m 48,1 km/h (6 Bft) 97,87 %
13.09.2017 11:04 17,7 C 21,1 C 18,9 C 74 % 0 lf 997,5 hPa 0,0 l/m 0 min 0 min 221 W/m 41,8 km/h (6 Bft) 100,00 %
13.09.2017 11:06 17,8 C 21,7 C 19,4 C 75 % 0 lf 997,6 hPa 0,0 l/m 2 min 0 min 622 W/m 62,8 km/h (8 Bft) 100,00 %
13.09.2017 11:08 17,8 C 21,1 C 19,4 C 74 % 0 lf 997,6 hPa 0,0 l/m 2 min 0 min 690 W/m 48,1 km/h (6 Bft) 100,00 %
13.09.2017 11:10 17,8 C 22,2 C 20,0 C 74 % 0 lf 997,5 hPa 0,0 l/m 2 min 0 min 566 W/m 54,4 km/h (7 Bft) 100,00 %
13.09.2017 11:12 17,9 C 21,7 C 19,4 C 74 % 0 lf 997,5 hPa 0,0 l/m 0 min 0 min 254 W/m 48,1 km/h (6 Bft) 97,87 %
13.09.2017 11:14 17,9 C 21,1 C 18,9 C 73 % 0 lf 997,7 hPa 0,0 l/m 2 min 0 min 347 W/m 52,3 km/h (7 Bft) 97,87 %
13.09.2017 11:16 17,9 C 21,1 C 18,9 C 73 % 0 lf 997,7 hPa 0,0 l/m 2 min 0 min 666 W/m 62,8 km/h (8 Bft) 100,00 %
13.09.2017 11:18 17,9 C 20,0 C 17,8 C 72 % 0 lf 997,7 hPa 0,0 l/m 0 min 0 min 231 W/m 50,2 km/h (7 Bft) 100,00 %
13.09.2017 11:20 17,8 C 21,7 C 19,4 C 73 % 0 lf 997,6 hPa 0,0 l/m 2 min 0 min 406 W/m 43,9 km/h (6 Bft) 100,00 %
13.09.2017 11:22 17,9 C 21,7 C 19,4 C 74 % 0 lf 997,5 hPa 0,0 l/m 2 min 0 min 765 W/m 43,9 km/h (6 Bft) 100,00 %
13.09.2017 11:24 17,9 C 22,2 C 20,0 C 74 % 0 lf 997,7 hPa 0,0 l/m 2 min 0 min 510 W/m 43,9 km/h (6 Bft) 97,87 %
13.09.2017 11:26 17,9 C 21,7 C 20,0 C 74 % 0 lf 997,6 hPa 0,0 l/m 2 min 0 min 308 W/m 52,3 km/h (7 Bft) 97,87 %
13.09.2017 11:28 17,9 C 20,0 C 18,3 C 74 % 0 lf 997,7 hPa 0,0 l/m 0 min 0 min 234 W/m 54,4 km/h (7 Bft) 100,00 %
13.09.2017 11:30 17,9 C 21,1 C 19,4 C 74 % 0 lf 997,7 hPa 0,0 l/m 2 min 0 min 537 W/m 56,5 km/h (7 Bft) 100,00 %
13.09.2017 11:32 17,9 C 20,0 C 18,3 C 73 % 0 lf 997,8 hPa 0,0 l/m 2 min 0 min 367 W/m 50,2 km/h (7 Bft) 95,74 %
13.09.2017 11:34 17,9 C 22,8 C 20,6 C 74 % 0 lf 997,8 hPa 0,0 l/m 0 min 0 min 255 W/m 37,7 km/h (5 Bft) 97,87 %
13.09.2017 11:36 17,9 C 21,7 C 19,4 C 73 % 0 lf 997,9 hPa 0,0 l/m 2 min 0 min 580 W/m 54,4 km/h (7 Bft) 93,62 %
13.09.2017 11:38 18,0 C 22,2 C 20,0 C 73 % 0 lf 997,8 hPa 0,0 l/m 2 min 0 min 580 W/m 52,3 km/h (7 Bft) 100,00 %
13.09.2017 11:40 18,0 C 21,1 C 19,4 C 73 % 0 lf 997,9 hPa 0,0 l/m 2 min 0 min 572 W/m 54,4 km/h (7 Bft) 97,83 %
13.09.2017 11:42 17,9 C 20,6 C 18,9 C 72 % 0 lf 997,8 hPa 0,0 l/m 0 min 0 min 264 W/m 50,2 km/h (7 Bft) 97,87 %
13.09.2017 11:44 17,9 C 21,1 C 19,4 C 73 % 0 lf 997,9 hPa 0,0 l/m 2 min 0 min 308 W/m 58,6 km/h (7 Bft) 97,87 %
13.09.2017 11:46 17,9 C 21,7 C 19,4 C 73 % 0 lf 997,9 hPa 0,0 l/m 2 min 0 min 322 W/m 43,9 km/h (6 Bft) 97,87 %
13.09.2017 11:48 18,0 C 22,8 C 20,6 C 73 % 0 lf 997,8 hPa 0,0 l/m 2 min 0 min 630 W/m 29,3 km/h (5 Bft) 97,87 %
13.09.2017 11:50 18,1 C 22,8 C 20,6 C 72 % 0 lf 998,0 hPa 0,0 l/m 2 min 0 min 626 W/m 50,2 km/h (7 Bft) 93,62 %
13.09.2017 11:52 18,1 C 23,9 C 21,1 C 72 % 0 lf 997,9 hPa 0,0 l/m 2 min 0 min 682 W/m 60,7 km/h (7 Bft) 95,65 %
13.09.2017 11:54 18,1 C 22,8 C 20,6 C 71 % 0 lf 997,9 hPa 0,0 l/m 2 min 0 min 710 W/m 43,9 km/h (6 Bft) 97,87 %
13.09.2017 11:56 18,1 C 22,2 C 20,0 C 71 % 0 lf 997,9 hPa 0,0 l/m 2 min 0 min 527 W/m 62,8 km/h (8 Bft) 97,87 %
13.09.2017 11:58 18,1 C 22,8 C 20,6 C 72 % 0 lf 998,0 hPa 0,0 l/m 2 min 0 min 594 W/m 64,9 km/h (8 Bft) 93,62 %
13.09.2017 12:00 18,1 C 22,8 C 20,6 C 72 % 0 lf 997,9 hPa 0,0 l/m 2 min 0 min 722 W/m 46,0 km/h (6 Bft) 97,87 %
13.09.2017 12:02 18,2 C 22,8 C 20,6 C 71 % 0 lf 997,9 hPa 0,0 l/m 2 min 0 min 697 W/m 50,2 km/h (7 Bft) 93,62 %
13.09.2017 12:04 18,2 C 23,3 C 21,1 C 71 % 0 lf 998,0 hPa 0,0 l/m 2 min 0 min 570 W/m 50,2 km/h (7 Bft) 97,83 %
13.09.2017 12:06 18,2 C 21,7 C 20,0 C 71 % 0 lf 998,1 hPa 0,0 l/m 2 min 0 min 666 W/m 60,7 km/h (7 Bft) 97,87 %
13.09.2017 12:10 18,2 C 22,8 C 21,1 C 70 % 0 lf 998,2 hPa 0,0 l/m 4 min 0 min 771 W/m 52,3 km/h (7 Bft) 94,85 %
13.09.2017 12:12 18,3 C 22,8 C 21,1 C 70 % 0 lf 998,2 hPa 0,0 l/m 2 min 0 min 809 W/m 41,8 km/h (6 Bft) 95,74 %
13.09.2017 12:14 18,3 C 22,2 C 20,6 C 71 % 0 lf 998,2 hPa 0,0 l/m 2 min 0 min 784 W/m 48,1 km/h (6 Bft) 95,74 %
13.09.2017 12:16 18,3 C 23,9 C 21,1 C 71 % 0 lf 998,2 hPa 0,0 l/m 2 min 0 min 746 W/m 39,7 km/h (6 Bft) 95,65 %
13.09.2017 12:18 18,3 C 23,9 C 21,7 C 71 % 0 lf 998,2 hPa 0,0 l/m 2 min 0 min 776 W/m 41,8 km/h (6 Bft) 95,74 %
13.09.2017 12:20 18,4 C 22,8 C 20,6 C 70 % 0 lf 998,5 hPa 0,0 l/m 2 min 0 min 840 W/m 60,7 km/h (7 Bft) 95,74 %
13.09.2017 12:22 18,4 C 23,3 C 21,7 C 71 % 0 lf 998,3 hPa 0,0 l/m 2 min 0 min 681 W/m 58,6 km/h (7 Bft) 95,74 %
13.09.2017 12:24 18,4 C 23,3 C 21,7 C 71 % 0 lf 998,3 hPa 0,0 l/m 2 min 0 min 683 W/m 52,3 km/h (7 Bft) 95,74 %
13.09.2017 12:26 18,5 C 23,3 C 21,1 C 70 % 0 lf 998,6 hPa 0,0 l/m 2 min 0 min 685 W/m 58,6 km/h (7 Bft) 95,65 %
13.09.2017 12:28 18,5 C 23,3 C 21,1 C 71 % 0 lf 998,5 hPa 0,0 l/m 2 min 0 min 686 W/m 54,4 km/h (7 Bft) 93,62 %
13.09.2017 12:30 18,5 C 22,8 C 20,6 C 70 % 0 lf 998,4 hPa 0,0 l/m 2 min 0 min 688 W/m 56,5 km/h (7 Bft) 97,87 %
13.09.2017 12:32 18,5 C 22,8 C 20,6 C 70 % 0 lf 998,6 hPa 0,0 l/m 2 min 0 min 689 W/m 60,7 km/h (7 Bft) 97,87 %
13.09.2017 12:34 18,4 C 22,2 C 20,6 C 70 % 0 lf 998,6 hPa 0,0 l/m 2 min 0 min 691 W/m 50,2 km/h (7 Bft) 97,87 %
13.09.2017 12:36 18,4 C 22,2 C 20,0 C 70 % 0 lf 998,5 hPa 0,0 l/m 2 min 0 min 692 W/m 50,2 km/h (7 Bft) 97,87 %
13.09.2017 12:38 18,4 C 23,9 C 21,1 C 70 % 0 lf 998,6 hPa 0,0 l/m 2 min 0 min 812 W/m 46,0 km/h (6 Bft) 97,83 %
13.09.2017 12:40 18,4 C 23,3 C 21,1 C 69 % 0 lf 998,5 hPa 0,0 l/m 2 min 0 min 756 W/m 58,6 km/h (7 Bft) 95,74 %
13.09.2017 12:42 18,5 C 23,9 C 21,1 C 70 % 0 lf 998,6 hPa 0,0 l/m 2 min 0 min 783 W/m 64,9 km/h (8 Bft) 95,74 %
13.09.2017 12:44 18,6 C 22,8 C 21,1 C 69 % 0 lf 998,6 hPa 0,0 l/m 2 min 0 min 769 W/m 69,0 km/h (8 Bft) 97,87 %
13.09.2017 12:46 18,6 C 23,3 C 20,6 C 68 % 0 lf 998,6 hPa 0,0 l/m 2 min 0 min 736 W/m 73,2 km/h (8 Bft) 97,87 %
13.09.2017 12:48 18,6 C 23,3 C 20,6 C 69 % 0 lf 998,8 hPa 0,0 l/m 2 min 0 min 754 W/m 56,5 km/h (7 Bft) 95,74 %
13.09.2017 12:50 18,6 C 22,8 C 19,4 C 69 % 0 lf 998,8 hPa 0,0 l/m 2 min 0 min 749 W/m 58,6 km/h (7 Bft) 93,48 %
13.09.2017 12:52 18,6 C 21,1 C 18,3 C 68 % 0 lf 999,1 hPa 0,0 l/m 2 min 0 min 744 W/m 64,9 km/h (8 Bft) 93,62 %
13.09.2017 12:54 18,4 C 21,1 C 17,8 C 68 % 0 lf 998,9 hPa 0,0 l/m 2 min 0 min 744 W/m 64,9 km/h (8 Bft) 93,62 %
13.09.2017 12:56 18,4 C 20,6 C 17,8 C 68 % 0 lf 998,7 hPa 0,0 l/m 2 min 0 min 536 W/m 52,3 km/h (7 Bft) 95,74 %
13.09.2017 12:58 18,4 C 22,2 C 17,8 C 69 % 0 lf 999,0 hPa 0,0 l/m 2 min 0 min 529 W/m 41,8 km/h (6 Bft) 93,62 %
13.09.2017 13:00 18,4 C 23,3 C 18,3 C 67 % 0 lf 998,9 hPa 0,0 l/m 2 min 0 min 710 W/m 54,4 km/h (7 Bft) 95,74 %
13.09.2017 13:02 18,6 C 24,4 C 18,3 C 66 % 0 lf 999,0 hPa 0,0 l/m 2 min 0 min 761 W/m 54,4 km/h (7 Bft) 93,48 %
13.09.2017 13:04 18,7 C 23,9 C 18,9 C 67 % 0 lf 999,0 hPa 0,0 l/m 2 min 0 min 744 W/m 60,7 km/h (7 Bft) 97,87 %
13.09.2017 13:06 18,7 C 23,9 C 18,3 C 66 % 0 lf 998,9 hPa 0,0 l/m 2 min 0 min 706 W/m 60,7 km/h (7 Bft) 95,74 %
13.09.2017 13:08 18,8 C 23,3 C 18,3 C 66 % 0 lf 999,2 hPa 0,0 l/m 2 min 0 min 723 W/m 73,2 km/h (8 Bft) 97,87 %
13.09.2017 13:10 18,8 C 22,8 C 18,3 C 65 % 0 lf 998,8 hPa 0,0 l/m 2 min 0 min 729 W/m 58,6 km/h (7 Bft) 95,74 %
13.09.2017 13:12 18,8 C 22,8 C 18,3 C 67 % 0 lf 999,0 hPa 0,0 l/m 2 min 0 min 729 W/m 46,0 km/h (6 Bft) 97,87 %
13.09.2017 13:14 18,8 C 22,2 C 18,3 C 66 % 0 lf 999,1 hPa 0,0 l/m 2 min 0 min 729 W/m 56,5 km/h (7 Bft) 95,65 %
13.09.2017 13:16 18,8 C 22,8 C 18,3 C 66 % 0 lf 999,2 hPa 0,0 l/m 2 min 0 min 729 W/m 58,6 km/h (7 Bft) 95,74 %
13.09.2017 13:18 18,8 C 21,7 C 17,8 C 66 % 0 lf 999,1 hPa 0,0 l/m 2 min 0 min 729 W/m 54,4 km/h (7 Bft) 97,83 %
13.09.2017 13:20 18,8 C 23,3 C 18,3 C 65 % 0 lf 999,0 hPa 0,0 l/m 2 min 0 min 734 W/m 62,8 km/h (8 Bft) 95,65 %
13.09.2017 13:22 18,8 C 23,9 C 18,3 C 65 % 0 lf 999,1 hPa 0,0 l/m 2 min 0 min 726 W/m 60,7 km/h (7 Bft) 93,62 %
13.09.2017 13:24 18,9 C 24,4 C 18,3 C 66 % 0 lf 999,0 hPa 0,0 l/m 2 min 0 min 728 W/m 50,2 km/h (7 Bft) 95,65 %
13.09.2017 13:26 18,9 C 25,0 C 18,3 C 65 % 0 lf 999,1 hPa 0,0 l/m 2 min 0 min 683 W/m 41,8 km/h (6 Bft) 91,49 %
13.09.2017 13:28 19,1 C 24,4 C 18,3 C 65 % 0 lf 999,2 hPa 0,0 l/m 2 min 0 min 721 W/m 58,6 km/h (7 Bft) 91,49 %
13.09.2017 13:30 19,1 C 24,4 C 18,3 C 64 % 0 lf 999,0 hPa 0,0 l/m 2 min 0 min 703 W/m 58,6 km/h (7 Bft) 97,87 %
13.09.2017 13:32 19,2 C 23,9 C 18,3 C 64 % 0 lf 999,2 hPa 0,0 l/m 2 min 0 min 727 W/m 66,9 km/h (8 Bft) 95,74 %
13.09.2017 13:34 19,2 C 24,4 C 18,3 C 63 % 0 lf 999,2 hPa 0,0 l/m 2 min 0 min 711 W/m 60,7 km/h (7 Bft) 95,74 %
13.09.2017 13:36 19,3 C 23,9 C 18,3 C 64 % 0 lf 999,2 hPa 0,0 l/m 2 min 0 min 739 W/m 58,6 km/h (7 Bft) 97,83 %
13.09.2017 13:38 19,3 C 23,9 C 18,3 C 63 % 0 lf 999,2 hPa 0,0 l/m 2 min 0 min 724 W/m 54,4 km/h (7 Bft) 97,87 %
13.09.2017 13:40 19,4 C 23,9 C 18,3 C 63 % 0 lf 999,3 hPa 0,0 l/m 2 min 0 min 637 W/m 46,0 km/h (6 Bft) 97,87 %
13.09.2017 13:42 19,3 C 22,8 C 18,3 C 63 % 0 lf 999,1 hPa 0,0 l/m 2 min 0 min 455 W/m 60,7 km/h (7 Bft) 95,74 %
13.09.2017 13:44 19,4 C 23,9 C 18,3 C 63 % 0 lf 999,2 hPa 0,0 l/m 2 min 0 min 464 W/m 46,0 km/h (6 Bft) 95,74 %
13.09.2017 13:46 19,4 C 24,4 C 18,9 C 64 % 0 lf 999,3 hPa 0,0 l/m 2 min 0 min 645 W/m 46,0 km/h (6 Bft) 93,62 %
13.09.2017 13:48 19,5 C 23,9 C 18,9 C 62 % 0 lf 999,4 hPa 0,0 l/m 2 min 0 min 676 W/m 48,1 km/h (6 Bft) 95,65 %
13.09.2017 13:50 19,5 C 24,4 C 18,9 C 62 % 0 lf 999,4 hPa 0,0 l/m 2 min 0 min 623 W/m 50,2 km/h (7 Bft) 95,74 %
13.09.2017 13:52 19,6 C 23,9 C 18,9 C 62 % 0 lf 999,3 hPa 0,0 l/m 2 min 0 min 647 W/m 56,5 km/h (7 Bft) 97,87 %
13.09.2017 13:54 19,6 C 24,4 C 18,3 C 60 % 0 lf 999,3 hPa 0,0 l/m 2 min 0 min 693 W/m 52,3 km/h (7 Bft) 97,87 %
13.09.2017 13:56 19,6 C 25,6 C 18,9 C 61 % 0 lf 999,4 hPa 0,0 l/m 2 min 0 min 666 W/m 39,7 km/h (6 Bft) 95,74 %
13.09.2017 13:58 19,7 C 25,0 C 18,9 C 60 % 0 lf 999,5 hPa 0,0 l/m 2 min 0 min 687 W/m 50,2 km/h (7 Bft) 97,87 %
13.09.2017 14:00 19,7 C 23,9 C 18,3 C 60 % 0 lf 999,5 hPa 0,0 l/m 2 min 0 min 631 W/m 52,3 km/h (7 Bft) 97,83 %
13.09.2017 14:02 19,7 C 25,0 C 18,9 C 61 % 0 lf 999,4 hPa 0,0 l/m 2 min 0 min 635 W/m 48,1 km/h (6 Bft) 95,74 %
13.09.2017 14:04 19,8 C 25,6 C 19,4 C 62 % 0 lf 999,3 hPa 0,0 l/m 2 min 0 min 729 W/m 41,8 km/h (6 Bft) 97,87 %
13.09.2017 14:06 19,8 C 24,4 C 18,9 C 62 % 0 lf 999,4 hPa 0,0 l/m 2 min 0 min 749 W/m 48,1 km/h (6 Bft) 95,74 %
13.09.2017 14:08 19,8 C 22,8 C 18,9 C 61 % 0 lf 999,5 hPa 0,0 l/m 2 min 0 min 605 W/m 50,2 km/h (7 Bft) 97,87 %
13.09.2017 14:10 19,8 C 23,9 C 18,9 C 63 % 0 lf 999,5 hPa 0,0 l/m 0 min 0 min 186 W/m 31,4 km/h (5 Bft) 95,74 %
13.09.2017 14:12 19,8 C 23,9 C 18,9 C 63 % 0 lf 999,5 hPa 0,0 l/m 0 min 0 min 197 W/m 56,5 km/h (7 Bft) 97,83 %
13.09.2017 14:14 19,8 C 25,0 C 18,9 C 64 % 0 lf 999,8 hPa 0,0 l/m 2 min 0 min 728 W/m 66,9 km/h (8 Bft) 100,00 %
13.09.2017 14:16 19,8 C 25,0 C 18,9 C 63 % 0 lf 999,7 hPa 0,0 l/m 2 min 0 min 700 W/m 43,9 km/h (6 Bft) 97,87 %
13.09.2017 14:18 19,9 C 25,0 C 18,9 C 63 % 0 lf 999,7 hPa 0,0 l/m 2 min 0 min 655 W/m 46,0 km/h (6 Bft) 100,00 %
13.09.2017 14:20 19,9 C 24,4 C 18,9 C 62 % 0 lf 999,8 hPa 0,0 l/m 2 min 0 min 682 W/m 54,4 km/h (7 Bft) 97,87 %
13.09.2017 14:22 19,8 C 23,9 C 18,9 C 62 % 0 lf 999,8 hPa 0,0 l/m 2 min 0 min 710 W/m 58,6 km/h (7 Bft) 100,00 %
13.09.2017 14:24 19,8 C 22,8 C 18,3 C 62 % 0 lf 999,8 hPa 0,0 l/m 2 min 0 min 711 W/m 52,3 km/h (7 Bft) 95,65 %
13.09.2017 14:26 19,7 C 22,2 C 18,3 C 63 % 0 lf 999,9 hPa 0,0 l/m 2 min 0 min 686 W/m 43,9 km/h (6 Bft) 95,74 %
13.09.2017 14:28 19,6 C 21,1 C 18,9 C 63 % 0 lf 999,8 hPa 0,0 l/m 2 min 0 min 353 W/m 43,9 km/h (6 Bft) 97,87 %
13.09.2017 14:30 19,5 C 22,8 C 18,9 C 64 % 0 lf 999,8 hPa 0,0 l/m 0 min 0 min 220 W/m 46,0 km/h (6 Bft) 97,87 %
13.09.2017 14:32 19,6 C 24,4 C 18,9 C 65 % 0 lf 999,9 hPa 0,0 l/m 2 min 0 min 732 W/m 43,9 km/h (6 Bft) 97,87 %
13.09.2017 14:34 19,6 C 24,4 C 19,4 C 65 % 0 lf 999,9 hPa 0,0 l/m 2 min 0 min 751 W/m 54,4 km/h (7 Bft) 95,74 %
13.09.2017 14:36 19,6 C 22,2 C 18,9 C 64 % 0 lf 999,9 hPa 0,0 l/m 2 min 0 min 756 W/m 48,1 km/h (6 Bft) 95,65 %
13.09.2017 14:38 19,5 C 22,2 C 19,4 C 64 % 0 lf 999,9 hPa 0,0 l/m 2 min 0 min 555 W/m 41,8 km/h (6 Bft) 95,74 %
13.09.2017 14:40 19,5 C 21,1 C 18,9 C 65 % 0 lf 1000,0 hPa 0,0 l/m 0 min 0 min 301 W/m 60,7 km/h (7 Bft) 91,49 %
13.09.2017 14:42 19,3 C 19,4 C 18,3 C 65 % 0 lf 1000,1 hPa 0,0 l/m 0 min 0 min 206 W/m 60,7 km/h (7 Bft) 95,74 %
13.09.2017 14:44 19,2 C 20,0 C 18,3 C 66 % 1 lf 1000,1 hPa 0,0 l/m 0 min 2 min 213 W/m 43,9 km/h (6 Bft) 93,62 %
13.09.2017 14:46 19,0 C 18,9 C 17,8 C 67 % 0 lf 1000,2 hPa 0,0 l/m 0 min 2 min 213 W/m 56,5 km/h (7 Bft) 95,74 %
13.09.2017 14:48 18,8 C 20,0 C 17,8 C 68 % 0 lf 1000,1 hPa 0,0 l/m 0 min 2 min 243 W/m 48,1 km/h (6 Bft) 93,48 %
13.09.2017 14:50 18,7 C 21,1 C 18,3 C 68 % 0 lf 1000,1 hPa 0,0 l/m 2 min 0 min 578 W/m 52,3 km/h (7 Bft) 95,74 %
13.09.2017 14:52 18,7 C 20,6 C 18,9 C 69 % 1 lf 1000,1 hPa 0,0 l/m 2 min 0 min 504 W/m 46,0 km/h (6 Bft) 95,74 %
13.09.2017 14:54 18,6 C 21,7 C 18,9 C 70 % 0 lf 1000,1 hPa 0,0 l/m 2 min 0 min 374 W/m 37,7 km/h (5 Bft) 95,74 %
13.09.2017 14:56 18,6 C 23,3 C 19,4 C 71 % 1 lf 1000,2 hPa 0,0 l/m 2 min 0 min 374 W/m 39,7 km/h (6 Bft) 93,62 %
13.09.2017 14:58 18,7 C 22,8 C 19,4 C 70 % 0 lf 1000,1 hPa 0,0 l/m 2 min 0 min 752 W/m 52,3 km/h (7 Bft) 91,30 %
13.09.2017 15:00 18,7 C 21,7 C 18,9 C 70 % 0 lf 1000,2 hPa 0,0 l/m 2 min 0 min 785 W/m 50,2 km/h (7 Bft) 95,74 %
13.09.2017 15:02 18,6 C 20,0 C 18,3 C 69 % 0 lf 1000,2 hPa 0,0 l/m 0 min 0 min 278 W/m 50,2 km/h (7 Bft) 93,62 %
13.09.2017 15:04 18,5 C 20,0 C 18,3 C 69 % 0 lf 1000,1 hPa 0,0 l/m 0 min 0 min 291 W/m 43,9 km/h (6 Bft) 95,74 %
13.09.2017 15:06 18,4 C 20,0 C 18,3 C 69 % 0 lf 1000,2 hPa 0,0 l/m 2 min 0 min 308 W/m 58,6 km/h (7 Bft) 95,74 %
13.09.2017 15:08 18,4 C 19,4 C 18,3 C 68 % 0 lf 1000,2 hPa 0,0 l/m 0 min 0 min 291 W/m 73,2 km/h (8 Bft) 95,74 %
13.09.2017 15:10 18,3 C 18,9 C 17,8 C 68 % 0 lf 1000,2 hPa 0,0 l/m 0 min 0 min 227 W/m 54,4 km/h (7 Bft) 95,65 %
13.09.2017 15:12 18,3 C 18,3 C 17,8 C 67 % 0 lf 1000,3 hPa 0,0 l/m 0 min 0 min 206 W/m 46,0 km/h (6 Bft) 91,49 %
13.09.2017 15:14 18,2 C 18,3 C 17,2 C 68 % 1 lf 1000,2 hPa 0,0 l/m 0 min 0 min 198 W/m 56,5 km/h (7 Bft) 95,74 %
13.09.2017 15:16 18,1 C 19,4 C 17,2 C 70 % 1 lf 1000,4 hPa 0,0 l/m 0 min 0 min 220 W/m 54,4 km/h (7 Bft) 95,74 %
13.09.2017 15:18 18,1 C 20,0 C 17,2 C 71 % 0 lf 1000,4 hPa 0,0 l/m 2 min 0 min 331 W/m 50,2 km/h (7 Bft) 93,62 %
13.09.2017 15:20 18,0 C 20,0 C 17,2 C 72 % 0 lf 1000,3 hPa 0,0 l/m 2 min 0 min 379 W/m 43,9 km/h (6 Bft) 100,00 %
13.09.2017 15:22 17,9 C 20,0 C 17,2 C 72 % 0 lf 1000,4 hPa 0,0 l/m 2 min 0 min 322 W/m 46,0 km/h (6 Bft) 97,83 %
13.09.2017 15:24 17,8 C 20,0 C 17,2 C 73 % 0 lf 1000,4 hPa 0,0 l/m 2 min 0 min 344 W/m 50,2 km/h (7 Bft) 95,74 %
13.09.2017 15:26 17,8 C 20,0 C 17,2 C 73 % 0 lf 1000,4 hPa 0,0 l/m 2 min 0 min 343 W/m 39,7 km/h (6 Bft) 97,87 %
13.09.2017 15:28 17,8 C 20,6 C 17,2 C 74 % 0 lf 1000,4 hPa 0,0 l/m 2 min 0 min 553 W/m 43,9 km/h (6 Bft) 93,62 %
13.09.2017 15:30 17,7 C 20,0 C 17,2 C 73 % 0 lf 1000,4 hPa 0,0 l/m 0 min 0 min 228 W/m 46,0 km/h (6 Bft) 97,87 %
13.09.2017 15:32 17,7 C 20,6 C 17,2 C 74 % 0 lf 1000,4 hPa 0,0 l/m 2 min 0 min 350 W/m 37,7 km/h (5 Bft) 95,74 %
13.09.2017 15:34 17,7 C 20,6 C 17,8 C 73 % 0 lf 1000,5 hPa 0,0 l/m 2 min 0 min 446 W/m 43,9 km/h (6 Bft) 97,83 %
13.09.2017 15:36 17,8 C 21,7 C 17,8 C 74 % 0 lf 1000,5 hPa 0,0 l/m 2 min 0 min 571 W/m 43,9 km/h (6 Bft) 97,87 %
13.09.2017 15:38 17,8 C 21,7 C 17,8 C 74 % 0 lf 1000,5 hPa 0,0 l/m 2 min 0 min 635 W/m 43,9 km/h (6 Bft) 95,74 %
13.09.2017 15:40 17,8 C 20,6 C 17,8 C 73 % 0 lf 1000,5 hPa 0,0 l/m 2 min 2 min 625 W/m 43,9 km/h (6 Bft) 97,87 %
13.09.2017 15:42 17,8 C 18,9 C 17,2 C 73 % 2 lf 1000,6 hPa 0,0 l/m 2 min 2 min 314 W/m 46,0 km/h (6 Bft) 97,87 %
13.09.2017 15:44 17,8 C 18,9 C 17,2 C 74 % 0 lf 1000,4 hPa 0,0 l/m 2 min 2 min 339 W/m 52,3 km/h (7 Bft) 97,87 %
13.09.2017 15:46 17,7 C 19,4 C 17,8 C 74 % 0 lf 1000,4 hPa 0,0 l/m 2 min 0 min 353 W/m 33,5 km/h (5 Bft) 95,65 %
13.09.2017 15:48 17,7 C 18,9 C 17,8 C 75 % 0 lf 1000,3 hPa 0,0 l/m 2 min 0 min 312 W/m 39,7 km/h (6 Bft) 95,74 %
13.09.2017 15:50 17,7 C 18,3 C 17,8 C 74 % 0 lf 1000,4 hPa 0,0 l/m 2 min 0 min 292 W/m 50,2 km/h (7 Bft) 97,87 %
13.09.2017 15:52 17,6 C 18,9 C 17,8 C 74 % 0 lf 1000,3 hPa 0,0 l/m 2 min 0 min 304 W/m 37,7 km/h (5 Bft) 97,87 %
13.09.2017 15:54 17,5 C 18,3 C 17,8 C 74 % 0 lf 1000,3 hPa 0,0 l/m 2 min 0 min 301 W/m 41,8 km/h (6 Bft) 95,74 %
13.09.2017 15:56 17,4 C 18,3 C 17,8 C 75 % 0 lf 1000,3 hPa 0,0 l/m 0 min 0 min 254 W/m 35,6 km/h (5 Bft) 97,87 %
13.09.2017 15:58 17,4 C 18,3 C 17,8 C 75 % 0 lf 1000,3 hPa 0,0 l/m 0 min 0 min 223 W/m 27,2 km/h (4 Bft) 97,83 %
13.09.2017 16:00 17,3 C 17,8 C 17,2 C 75 % 0 lf 1000,3 hPa 0,0 l/m 0 min 0 min 228 W/m 56,5 km/h (7 Bft) 97,87 %
13.09.2017 16:02 17,2 C 17,8 C 17,2 C 75 % 0 lf 1000,3 hPa 0,0 l/m 0 min 0 min 243 W/m 41,8 km/h (6 Bft) 97,87 %
13.09.2017 16:04 17,2 C 18,3 C 17,2 C 75 % 0 lf 1000,4 hPa 0,0 l/m 2 min 0 min 279 W/m 37,7 km/h (5 Bft) 97,87 %
13.09.2017 16:06 17,1 C 18,3 C 17,2 C 76 % 0 lf 1000,4 hPa 0,0 l/m 2 min 0 min 322 W/m 46,0 km/h (6 Bft) 95,74 %
13.09.2017 16:08 17,1 C 18,3 C 17,2 C 76 % 0 lf 1000,4 hPa 0,0 l/m 2 min 0 min 287 W/m 29,3 km/h (5 Bft) 97,87 %
13.09.2017 16:10 17,1 C 17,8 C 17,2 C 76 % 0 lf 1000,4 hPa 0,0 l/m 0 min 0 min 250 W/m 37,7 km/h (5 Bft) 100,00 %
13.09.2017 16:12 17,0 C 17,2 C 17,2 C 77 % 0 lf 1000,5 hPa 0,0 l/m 0 min 0 min 232 W/m 39,7 km/h (6 Bft) 97,87 %
13.09.2017 16:14 16,9 C 17,2 C 16,7 C 77 % 0 lf 1000,5 hPa 0,0 l/m 0 min 0 min 210 W/m 33,5 km/h (5 Bft) 100,00 %
13.09.2017 16:16 16,8 C 17,2 C 16,7 C 77 % 0 lf 1000,4 hPa 0,0 l/m 2 min 0 min 267 W/m 43,9 km/h (6 Bft) 100,00 %
13.09.2017 16:18 16,8 C 17,2 C 16,7 C 77 % 0 lf 1000,3 hPa 0,0 l/m 2 min 0 min 304 W/m 31,4 km/h (5 Bft) 97,87 %
13.09.2017 16:20 16,7 C 18,9 C 17,2 C 78 % 0 lf 1000,4 hPa 0,0 l/m 2 min 0 min 309 W/m 39,7 km/h (6 Bft) 97,83 %
13.09.2017 16:22 16,7 C 19,4 C 17,2 C 79 % 0 lf 1000,4 hPa 0,0 l/m 2 min 0 min 394 W/m 35,6 km/h (5 Bft) 95,74 %
13.09.2017 16:24 16,7 C 19,4 C 16,7 C 78 % 0 lf 1000,4 hPa 0,0 l/m 2 min 0 min 394 W/m 41,8 km/h (6 Bft) 97,87 %
13.09.2017 16:26 16,8 C 20,0 C 16,7 C 79 % 0 lf 1000,4 hPa 0,0 l/m 2 min 0 min 358 W/m 33,5 km/h (5 Bft) 100,00 %
13.09.2017 16:28 16,8 C 20,6 C 16,7 C 79 % 0 lf 1000,4 hPa 0,0 l/m 2 min 0 min 454 W/m 35,6 km/h (5 Bft) 100,00 %
13.09.2017 16:30 16,9 C 20,6 C 16,7 C 79 % 0 lf 1000,4 hPa 0,0 l/m 2 min 0 min 503 W/m 41,8 km/h (6 Bft) 97,87 %
13.09.2017 16:32 16,9 C 20,6 C 16,1 C 78 % 0 lf 1000,5 hPa 0,0 l/m 2 min 0 min 468 W/m 41,8 km/h (6 Bft) 100,00 %
13.09.2017 16:34 17,0 C 20,6 C 16,1 C 77 % 0 lf 1000,5 hPa 0,0 l/m 2 min 0 min 456 W/m 31,4 km/h (5 Bft) 95,74 %
13.09.2017 16:36 17,1 C 20,6 C 16,1 C 77 % 0 lf 1000,5 hPa 0,0 l/m 2 min 0 min 450 W/m 33,5 km/h (5 Bft) 97,87 %
13.09.2017 16:38 17,2 C 20,6 C 16,1 C 77 % 0 lf 1000,5 hPa 0,0 l/m 2 min 0 min 445 W/m 39,7 km/h (6 Bft) 97,87 %
13.09.2017 16:40 17,2 C 20,6 C 16,1 C 77 % 0 lf 1000,4 hPa 0,0 l/m 2 min 0 min 439 W/m 37,7 km/h (5 Bft) 95,74 %
13.09.2017 16:42 17,2 C 20,6 C 16,1 C 76 % 0 lf 1000,4 hPa 0,0 l/m 2 min 0 min 436 W/m 35,6 km/h (5 Bft) 95,74 %
13.09.2017 16:44 17,3 C 20,6 C 16,1 C 76 % 0 lf 1000,3 hPa 0,0 l/m 2 min 0 min 430 W/m 35,6 km/h (5 Bft) 93,48 %
13.09.2017 16:46 17,3 C 20,6 C 16,1 C 76 % 0 lf 1000,3 hPa 0,0 l/m 2 min 0 min 425 W/m 31,4 km/h (5 Bft) 97,87 %
13.09.2017 16:48 17,3 C 20,0 C 16,1 C 75 % 0 lf 1000,2 hPa 0,0 l/m 2 min 0 min 420 W/m 35,6 km/h (5 Bft) 97,87 %
13.09.2017 16:50 17,4 C 19,4 C 16,1 C 75 % 0 lf 1000,2 hPa 0,0 l/m 2 min 0 min 415 W/m 35,6 km/h (5 Bft) 95,74 %
13.09.2017 16:52 17,4 C 19,4 C 16,1 C 74 % 0 lf 1000,3 hPa 0,0 l/m 2 min 0 min 412 W/m 43,9 km/h (6 Bft) 95,74 %
13.09.2017 16:54 17,4 C 20,0 C 16,1 C 74 % 0 lf 1000,2 hPa 0,0 l/m 2 min 0 min 406 W/m 29,3 km/h (5 Bft) 95,74 %
13.09.2017 16:56 17,5 C 19,4 C 16,1 C 74 % 0 lf 1000,3 hPa 0,0 l/m 2 min 0 min 401 W/m 35,6 km/h (5 Bft) 93,48 %
13.09.2017 16:58 17,5 C 18,9 C 16,1 C 73 % 0 lf 1000,1 hPa 0,0 l/m 2 min 0 min 395 W/m 39,7 km/h (6 Bft) 95,74 %
13.09.2017 17:00 17,5 C 18,9 C 16,1 C 72 % 0 lf 1000,2 hPa 0,0 l/m 2 min 0 min 392 W/m 39,7 km/h (6 Bft) 95,74 %
13.09.2017 17:02 17,5 C 18,9 C 16,1 C 72 % 0 lf 1000,4 hPa 0,0 l/m 2 min 0 min 388 W/m 37,7 km/h (5 Bft) 95,74 %
13.09.2017 17:04 17,5 C 18,3 C 16,1 C 72 % 0 lf 1000,3 hPa 0,0 l/m 2 min 0 min 382 W/m 35,6 km/h (5 Bft) 95,74 %
13.09.2017 17:06 17,6 C 18,3 C 16,1 C 73 % 0 lf 1000,4 hPa 0,0 l/m 2 min 0 min 379 W/m 35,6 km/h (5 Bft) 95,74 %
13.09.2017 17:08 17,6 C 18,3 C 16,1 C 73 % 0 lf 1000,3 hPa 0,0 l/m 2 min 0 min 379 W/m 31,4 km/h (5 Bft) 95,65 %
13.09.2017 17:10 17,6 C 17,8 C 16,1 C 73 % 0 lf 1000,4 hPa 0,0 l/m 2 min 0 min 378 W/m 31,4 km/h (5 Bft) 93,62 %
13.09.2017 17:12 17,6 C 17,8 C 16,1 C 73 % 0 lf 1000,6 hPa 0,0 l/m 2 min 0 min 370 W/m 39,7 km/h (6 Bft) 93,62 %
13.09.2017 17:14 17,6 C 17,8 C 16,1 C 73 % 0 lf 1000,5 hPa 0,0 l/m 2 min 0 min 381 W/m 48,1 km/h (6 Bft) 91,49 %
13.09.2017 17:16 17,6 C 17,8 C 16,1 C 73 % 0 lf 1000,6 hPa 0,0 l/m 2 min 0 min 341 W/m 43,9 km/h (6 Bft) 93,62 %
13.09.2017 17:18 17,6 C 17,2 C 16,1 C 72 % 0 lf 1000,5 hPa 0,0 l/m 0 min 0 min 123 W/m 46,0 km/h (6 Bft) 95,74 %
13.09.2017 17:20 17,5 C 17,2 C 15,6 C 72 % 0 lf 1000,5 hPa 0,0 l/m 0 min 0 min 105 W/m 54,4 km/h (7 Bft) 97,83 %
13.09.2017 17:22 17,4 C 17,2 C 15,6 C 72 % 0 lf 1000,4 hPa 0,0 l/m 0 min 0 min 151 W/m 54,4 km/h (7 Bft) 97,87 %
13.09.2017 17:24 17,4 C 17,8 C 16,1 C 73 % 0 lf 1000,4 hPa 0,0 l/m 2 min 0 min 325 W/m 48,1 km/h (6 Bft) 95,74 %
13.09.2017 17:26 17,4 C 17,8 C 16,1 C 73 % 0 lf 1000,4 hPa 0,0 l/m 2 min 0 min 313 W/m 31,4 km/h (5 Bft) 95,74 %
13.09.2017 17:28 17,4 C 17,8 C 16,1 C 73 % 0 lf 1000,3 hPa 0,0 l/m 2 min 0 min 338 W/m 31,4 km/h (5 Bft) 95,74 %
13.09.2017 17:30 17,4 C 17,8 C 16,1 C 74 % 0 lf 1000,3 hPa 0,0 l/m 2 min 0 min 325 W/m 31,4 km/h (5 Bft) 95,74 %
13.09.2017 17:32 17,4 C 17,8 C 16,1 C 73 % 0 lf 1000,3 hPa 0,0 l/m 2 min 0 min 321 W/m 50,2 km/h (7 Bft) 97,83 %
13.09.2017 17:34 17,4 C 17,8 C 16,1 C 73 % 0 lf 1000,3 hPa 0,0 l/m 2 min 0 min 307 W/m 39,7 km/h (6 Bft) 97,87 %
13.09.2017 17:36 17,5 C 17,8 C 16,1 C 73 % 0 lf 1000,1 hPa 0,0 l/m 2 min 0 min 310 W/m 39,7 km/h (6 Bft) 95,74 %
13.09.2017 17:38 17,5 C 17,8 C 16,1 C 72 % 0 lf 1000,2 hPa 0,0 l/m 2 min 0 min 302 W/m 37,7 km/h (5 Bft) 97,87 %
13.09.2017 17:40 17,6 C 17,8 C 16,1 C 72 % 0 lf 1000,1 hPa 0,0 l/m 2 min 0 min 294 W/m 39,7 km/h (6 Bft) 97,87 %
13.09.2017 17:42 17,6 C 17,8 C 16,1 C 72 % 0 lf 1000,0 hPa 0,0 l/m 2 min 0 min 286 W/m 35,6 km/h (5 Bft) 97,87 %
13.09.2017 17:44 17,6 C 17,8 C 16,1 C 72 % 0 lf 1000,1 hPa 0,0 l/m 2 min 0 min 285 W/m 41,8 km/h (6 Bft) 95,65 %
13.09.2017 17:46 17,6 C 17,8 C 16,1 C 72 % 0 lf 1000,1 hPa 0,0 l/m 2 min 0 min 283 W/m 29,3 km/h (5 Bft) 97,87 %
13.09.2017 17:48 17,6 C 17,8 C 16,1 C 72 % 0 lf 1000,1 hPa 0,0 l/m 2 min 0 min 263 W/m 43,9 km/h (6 Bft) 97,87 %
13.09.2017 17:50 17,6 C 17,8 C 15,6 C 72 % 0 lf 1000,1 hPa 0,0 l/m 2 min 0 min 236 W/m 33,5 km/h (5 Bft) 98,00 %
13.09.2017 17:52 17,6 C 17,2 C 15,6 C 72 % 0 lf 1000,2 hPa 0,0 l/m 0 min 0 min 127 W/m 27,2 km/h (4 Bft) 97,14 %
13.09.2017 17:54 17,6 C 17,8 C 15,6 C 73 % 0 lf 1000,2 hPa 0,0 l/m 2 min 0 min 213 W/m 31,4 km/h (5 Bft) 97,87 %
13.09.2017 17:56 17,5 C 17,2 C 15,6 C 73 % 0 lf 1000,1 hPa 0,0 l/m 2 min 0 min 242 W/m 35,6 km/h (5 Bft) 95,74 %
13.09.2017 17:58 17,5 C 17,2 C 15,6 C 73 % 0 lf 1000,1 hPa 0,0 l/m 2 min 0 min 242 W/m 39,7 km/h (6 Bft) 93,62 %
13.09.2017 18:00 17,4 C 17,2 C 15,6 C 74 % 0 lf 1000,0 hPa 0,0 l/m 2 min 0 min 230 W/m 35,6 km/h (5 Bft) 95,65 %
13.09.2017 18:02 17,4 C 17,2 C 15,6 C 74 % 0 lf 1000,0 hPa 0,0 l/m 2 min 0 min 222 W/m 43,9 km/h (6 Bft) 93,62 %
13.09.2017 18:04 17,4 C 17,2 C 15,6 C 74 % 0 lf 1000,2 hPa 0,0 l/m 2 min 0 min 221 W/m 41,8 km/h (6 Bft) 91,49 %
13.09.2017 18:06 17,3 C 17,2 C 15,6 C 74 % 0 lf 1000,1 hPa 0,0 l/m 2 min 0 min 221 W/m 43,9 km/h (6 Bft) 93,62 %
13.09.2017 18:10 17,2 C 16,7 C 15,0 C 74 % 0 lf 1000,2 hPa 0,0 l/m 4 min 0 min 161 W/m 43,9 km/h (6 Bft) 93,62 %
13.09.2017 18:12 17,1 C 16,7 C 15,0 C 74 % 0 lf 1000,1 hPa 0,0 l/m 0 min 0 min 53 W/m 46,0 km/h (6 Bft) 95,65 %
13.09.2017 18:14 17,0 C 16,7 C 15,0 C 75 % 0 lf 1000,2 hPa 0,0 l/m 0 min 0 min 49 W/m 39,7 km/h (6 Bft) 95,74 %
13.09.2017 18:16 16,9 C 16,7 C 15,0 C 75 % 0 lf 1000,3 hPa 0,0 l/m 0 min 0 min 56 W/m 29,3 km/h (5 Bft) 95,74 %
13.09.2017 18:18 16,9 C 16,7 C 15,0 C 75 % 0 lf 1000,2 hPa 0,0 l/m 0 min 0 min 65 W/m 33,5 km/h (5 Bft) 93,62 %
13.09.2017 18:20 16,8 C 16,7 C 15,0 C 76 % 0 lf 1000,2 hPa 0,0 l/m 0 min 0 min 62 W/m 37,7 km/h (5 Bft) 93,62 %
13.09.2017 18:22 16,8 C 16,1 C 15,0 C 76 % 0 lf 1000,2 hPa 0,0 l/m 0 min 0 min 53 W/m 29,3 km/h (5 Bft) 95,74 %
13.09.2017 18:24 16,7 C 16,1 C 15,0 C 77 % 0 lf 1000,3 hPa 0,0 l/m 0 min 0 min 38 W/m 27,2 km/h (4 Bft) 97,83 %
13.09.2017 18:26 16,6 C 16,1 C 15,0 C 77 % 0 lf 1000,3 hPa 0,0 l/m 0 min 0 min 28 W/m 37,7 km/h (5 Bft) 95,74 %
13.09.2017 18:28 16,6 C 16,1 C 15,0 C 77 % 2 lf 1000,3 hPa 0,0 l/m 0 min 0 min 23 W/m 31,4 km/h (5 Bft) 97,87 %
13.09.2017 18:30 16,5 C 15,0 C 12,8 C 77 % 15 lf 1000,3 hPa 0,0 l/m 0 min 2 min 17 W/m 27,2 km/h (4 Bft) 97,87 %
13.09.2017 18:32 16,4 C 14,4 C 12,8 C 78 % 15 lf 1000,3 hPa 0,0 l/m 0 min 2 min 18 W/m 35,6 km/h (5 Bft) 100,00 %
13.09.2017 18:34 16,3 C 13,9 C 12,8 C 79 % 15 lf 1000,4 hPa 0,0 l/m 0 min 2 min 30 W/m 31,4 km/h (5 Bft) 97,87 %
13.09.2017 18:36 16,2 C 13,9 C 12,2 C 79 % 15 lf 1000,3 hPa 0,2 l/m 0 min 2 min 48 W/m 41,8 km/h (6 Bft) 95,65 %
13.09.2017 18:38 16,1 C 13,9 C 12,8 C 80 % 15 lf 1000,4 hPa 0,0 l/m 0 min 2 min 55 W/m 35,6 km/h (5 Bft) 95,74 %
13.09.2017 18:40 15,9 C 13,9 C 12,8 C 81 % 15 lf 1000,4 hPa 0,0 l/m 0 min 2 min 67 W/m 37,7 km/h (5 Bft) 95,74 %
13.09.2017 18:42 15,9 C 14,4 C 12,8 C 81 % 15 lf 1000,4 hPa 0,0 l/m 2 min 2 min 103 W/m 29,3 km/h (5 Bft) 95,74 %
13.09.2017 18:44 15,8 C 14,4 C 12,8 C 82 % 15 lf 1000,3 hPa 0,0 l/m 2 min 2 min 125 W/m 46,0 km/h (6 Bft) 97,87 %
13.09.2017 18:46 15,7 C 15,0 C 12,8 C 82 % 15 lf 1000,3 hPa 0,0 l/m 2 min 2 min 99 W/m 48,1 km/h (6 Bft) 100,00 %
13.09.2017 18:48 15,6 C 15,0 C 12,2 C 81 % 15 lf 1000,3 hPa 0,0 l/m 2 min 2 min 84 W/m 37,7 km/h (5 Bft) 97,87 %
13.09.2017 18:50 15,6 C 15,0 C 12,2 C 81 % 15 lf 1000,2 hPa 0,0 l/m 0 min 2 min 60 W/m 29,3 km/h (5 Bft) 100,00 %
13.09.2017 18:52 15,6 C 15,0 C 12,2 C 81 % 13 lf 1000,2 hPa 0,0 l/m 2 min 2 min 86 W/m 29,3 km/h (5 Bft) 100,00 %
13.09.2017 18:54 15,5 C 15,6 C 12,8 C 82 % 9 lf 1000,2 hPa 0,0 l/m 2 min 0 min 90 W/m 25,1 km/h (4 Bft) 100,00 %
13.09.2017 18:56 15,5 C 15,6 C 12,8 C 82 % 3 lf 1000,2 hPa 0,0 l/m 2 min 0 min 75 W/m 23,0 km/h (4 Bft) 100,00 %
13.09.2017 18:58 15,4 C 15,6 C 12,8 C 82 % 1 lf 1000,2 hPa 0,0 l/m 2 min 0 min 70 W/m 33,5 km/h (5 Bft) 100,00 %
13.09.2017 19:00 15,4 C 15,6 C 12,8 C 82 % 0 lf 1000,2 hPa 0,0 l/m 0 min 0 min 41 W/m 18,8 km/h (3 Bft) 100,00 %
13.09.2017 19:02 15,4 C 15,6 C 12,8 C 83 % 0 lf 1000,2 hPa 0,0 l/m 0 min 0 min 38 W/m 27,2 km/h (4 Bft) 97,87 %
13.09.2017 19:04 15,4 C 15,0 C 12,8 C 83 % 0 lf 1000,1 hPa 0,0 l/m 0 min 0 min 37 W/m 20,9 km/h (4 Bft) 100,00 %
13.09.2017 19:06 15,4 C 15,0 C 12,8 C 83 % 0 lf 1000,1 hPa 0,0 l/m 0 min 0 min 36 W/m 18,8 km/h (3 Bft) 100,00 %
13.09.2017 19:08 15,4 C 15,0 C 12,8 C 83 % 0 lf 1000,0 hPa 0,0 l/m 0 min 0 min 35 W/m 16,7 km/h (3 Bft) 97,87 %
13.09.2017 19:10 15,4 C 15,0 C 12,8 C 82 % 0 lf 1000,0 hPa 0,0 l/m 0 min 0 min 33 W/m 29,3 km/h (5 Bft) 95,65 %
13.09.2017 19:12 15,4 C 15,0 C 12,8 C 82 % 0 lf 1000,1 hPa 0,0 l/m 0 min 0 min 30 W/m 23,0 km/h (4 Bft) 97,87 %
13.09.2017 19:14 15,4 C 15,0 C 12,8 C 82 % 0 lf 999,9 hPa 0,0 l/m 0 min 0 min 28 W/m 18,8 km/h (3 Bft) 97,87 %
13.09.2017 19:16 15,4 C 15,0 C 12,8 C 82 % 0 lf 999,8 hPa 0,0 l/m 0 min 0 min 26 W/m 18,8 km/h (3 Bft) 93,62 %
13.09.2017 19:18 15,3 C 15,0 C 12,8 C 82 % 0 lf 999,8 hPa 0,0 l/m 0 min 0 min 25 W/m 20,9 km/h (4 Bft) 97,87 %
13.09.2017 19:20 15,3 C 15,0 C 12,8 C 82 % 0 lf 999,9 hPa 0,0 l/m 0 min 0 min 25 W/m 12,6 km/h (3 Bft) 95,65 %
13.09.2017 19:22 15,3 C 15,0 C 12,8 C 82 % 0 lf 999,8 hPa 0,0 l/m 0 min 0 min 29 W/m 23,0 km/h (4 Bft) 95,74 %
13.09.2017 19:24 15,3 C 15,0 C 12,8 C 81 % 0 lf 999,9 hPa 0,0 l/m 0 min 0 min 31 W/m 25,1 km/h (4 Bft) 98,15 %
13.09.2017 19:26 15,3 C 15,0 C 12,8 C 81 % 0 lf 999,9 hPa 0,0 l/m 2 min 0 min 29 W/m 27,2 km/h (4 Bft) 95,74 %
13.09.2017 19:28 15,3 C 15,0 C 12,8 C 81 % 0 lf 999,9 hPa 0,0 l/m 2 min 0 min 33 W/m 20,9 km/h (4 Bft) 97,83 %
13.09.2017 19:30 15,3 C 15,0 C 12,8 C 81 % 0 lf 999,8 hPa 0,0 l/m 2 min 0 min 26 W/m 18,8 km/h (3 Bft) 95,74 %
13.09.2017 19:32 15,3 C 15,0 C 12,8 C 81 % 0 lf 999,8 hPa 0,0 l/m 2 min 0 min 31 W/m 23,0 km/h (4 Bft) 97,87 %
13.09.2017 19:34 15,3 C 15,0 C 12,8 C 80 % 0 lf 999,7 hPa 0,0 l/m 2 min 0 min 27 W/m 27,2 km/h (4 Bft) 95,74 %
13.09.2017 19:36 15,2 C 15,0 C 12,8 C 80 % 0 lf 999,8 hPa 0,0 l/m 2 min 0 min 25 W/m 31,4 km/h (5 Bft) 97,87 %
13.09.2017 19:38 15,2 C 15,0 C 12,8 C 79 % 0 lf 999,8 hPa 0,0 l/m 2 min 0 min 27 W/m 23,0 km/h (4 Bft) 97,87 %
13.09.2017 19:40 15,2 C 15,0 C 12,8 C 79 % 0 lf 999,8 hPa 0,0 l/m 2 min 0 min 21 W/m 20,9 km/h (4 Bft) 100,00 %
13.09.2017 19:42 15,2 C 15,0 C 12,8 C 79 % 0 lf 999,8 hPa 0,0 l/m 0 min 0 min 16 W/m 20,9 km/h (4 Bft) 97,87 %
13.09.2017 19:44 15,2 C 15,0 C 12,8 C 78 % 0 lf 999,8 hPa 0,0 l/m 0 min 0 min 10 W/m 23,0 km/h (4 Bft) 97,87 %
13.09.2017 19:46 15,2 C 15,0 C 12,8 C 78 % 0 lf 999,8 hPa 0,0 l/m 0 min 0 min 12 W/m 18,8 km/h (3 Bft) 93,62 %
13.09.2017 19:48 15,2 C 14,4 C 12,8 C 78 % 0 lf 999,8 hPa 0,0 l/m 0 min 0 min 11 W/m 18,8 km/h (3 Bft) 95,74 %
13.09.2017 19:50 15,1 C 14,4 C 12,8 C 78 % 0 lf 999,7 hPa 0,0 l/m 0 min 0 min 11 W/m 20,9 km/h (4 Bft) 97,87 %
13.09.2017 19:52 15,1 C 14,4 C 12,8 C 78 % 0 lf 999,6 hPa 0,0 l/m 0 min 0 min 9 W/m 18,8 km/h (3 Bft) 97,83 %
13.09.2017 19:54 15,1 C 14,4 C 12,8 C 78 % 0 lf 999,7 hPa 0,0 l/m 0 min 0 min 9 W/m 20,9 km/h (4 Bft) 97,87 %
13.09.2017 19:56 15,1 C 14,4 C 12,2 C 78 % 0 lf 999,6 hPa 0,0 l/m 0 min 0 min 7 W/m 18,8 km/h (3 Bft) 97,87 %
13.09.2017 19:58 15,1 C 14,4 C 12,2 C 78 % 0 lf 999,6 hPa 0,0 l/m 0 min 0 min 5 W/m 16,7 km/h (3 Bft) 93,62 %
13.09.2017 20:00 15,1 C 14,4 C 12,2 C 78 % 0 lf 999,6 hPa 0,0 l/m 0 min 0 min 5 W/m 20,9 km/h (4 Bft) 93,62 %
13.09.2017 20:02 15,0 C 14,4 C 12,2 C 78 % 0 lf 999,6 hPa 0,0 l/m 0 min 0 min 5 W/m 18,8 km/h (3 Bft) 95,74 %
13.09.2017 20:04 15,0 C 14,4 C 12,2 C 78 % 0 lf 999,6 hPa 0,0 l/m 0 min 0 min 5 W/m 23,0 km/h (4 Bft) 95,65 %
13.09.2017 20:06 14,9 C 14,4 C 12,8 C 78 % 0 lf 999,6 hPa 0,0 l/m 0 min 0 min 0 W/m 20,9 km/h (4 Bft) 97,87 %
13.09.2017 20:08 14,9 C 14,4 C 12,2 C 78 % 0 lf 999,6 hPa 0,0 l/m 0 min 0 min 0 W/m 14,6 km/h (3 Bft) 97,87 %
13.09.2017 20:10 14,9 C 14,4 C 12,2 C 78 % 0 lf 999,6 hPa 0,0 l/m 0 min 0 min 0 W/m 20,9 km/h (4 Bft) 97,87 %
13.09.2017 20:12 14,9 C 14,4 C 12,2 C 78 % 0 lf 999,6 hPa 0,0 l/m 0 min 0 min 0 W/m 14,6 km/h (3 Bft) 98,00 %
13.09.2017 20:14 14,9 C 14,4 C 12,2 C 78 % 0 lf 999,6 hPa 0,0 l/m 0 min 0 min 0 W/m 16,7 km/h (3 Bft) 97,83 %
13.09.2017 20:16 14,8 C 13,9 C 12,2 C 78 % 0 lf 999,7 hPa 0,0 l/m 0 min 0 min 0 W/m 14,6 km/h (3 Bft) 97,87 %
13.09.2017 20:18 14,8 C 14,4 C 12,2 C 78 % 0 lf 999,7 hPa 0,0 l/m 0 min 0 min 0 W/m 18,8 km/h (3 Bft) 97,87 %
13.09.2017 20:20 14,8 C 14,4 C 12,8 C 78 % 0 lf 999,7 hPa 0,0 l/m 0 min 0 min 0 W/m 20,9 km/h (4 Bft) 100,00 %
13.09.2017 20:22 14,8 C 14,4 C 12,8 C 78 % 0 lf 999,7 hPa 0,0 l/m 0 min 0 min 0 W/m 14,6 km/h (3 Bft) 93,62 %
13.09.2017 20:24 14,7 C 14,4 C 12,2 C 78 % 0 lf 999,7 hPa 0,0 l/m 0 min 0 min 0 W/m 16,7 km/h (3 Bft) 97,87 %
13.09.2017 20:26 14,7 C 13,9 C 12,2 C 78 % 0 lf 999,8 hPa 0,0 l/m 0 min 0 min 0 W/m 20,9 km/h (4 Bft) 97,83 %
13.09.2017 20:28 14,7 C 13,9 C 12,2 C 78 % 0 lf 999,8 hPa 0,0 l/m 0 min 0 min 0 W/m 16,7 km/h (3 Bft) 100,00 %
13.09.2017 20:30 14,7 C 13,9 C 12,2 C 77 % 0 lf 999,7 hPa 0,0 l/m 0 min 0 min 0 W/m 20,9 km/h (4 Bft) 97,87 %
13.09.2017 20:32 14,7 C 14,4 C 12,8 C 77 % 0 lf 999,7 hPa 0,0 l/m 0 min 0 min 0 W/m 23,0 km/h (4 Bft) 100,00 %
13.09.2017 20:34 14,6 C 13,9 C 12,8 C 77 % 0 lf 999,7 hPa 0,0 l/m 0 min 0 min 0 W/m 16,7 km/h (3 Bft) 100,00 %
13.09.2017 20:36 14,6 C 13,9 C 12,2 C 77 % 0 lf 999,6 hPa 0,0 l/m 0 min 0 min 1 W/m 18,8 km/h (3 Bft) 95,74 %
13.09.2017 20:38 14,6 C 13,9 C 12,2 C 77 % 0 lf 999,6 hPa 0,0 l/m 0 min 0 min 5 W/m 20,9 km/h (4 Bft) 100,00 %
13.09.2017 20:40 14,6 C 13,9 C 12,2 C 76 % 0 lf 999,7 hPa 0,0 l/m 0 min 0 min 5 W/m 16,7 km/h (3 Bft) 95,74 %
13.09.2017 20:42 14,5 C 13,9 C 12,2 C 76 % 0 lf 999,7 hPa 0,0 l/m 0 min 0 min 5 W/m 14,6 km/h (3 Bft) 100,00 %
13.09.2017 20:44 14,5 C 13,9 C 12,2 C 76 % 0 lf 999,7 hPa 0,0 l/m 0 min 0 min 5 W/m 20,9 km/h (4 Bft) 97,87 %
13.09.2017 20:46 14,5 C 13,9 C 12,2 C 76 % 0 lf 999,7 hPa 0,0 l/m 0 min 0 min 5 W/m 16,7 km/h (3 Bft) 95,74 %
13.09.2017 20:48 14,4 C 13,9 C 12,2 C 76 % 0 lf 999,7 hPa 0,0 l/m 0 min 0 min 5 W/m 14,6 km/h (3 Bft) 100,00 %
13.09.2017 20:50 14,4 C 13,9 C 12,2 C 76 % 0 lf 999,7 hPa 0,0 l/m 0 min 0 min 5 W/m 23,0 km/h (4 Bft) 100,00 %
13.09.2017 20:52 14,4 C 13,9 C 12,2 C 76 % 0 lf 999,9 hPa 0,0 l/m 0 min 0 min 5 W/m 16,7 km/h (3 Bft) 97,87 %
13.09.2017 20:54 14,4 C 13,9 C 12,2 C 75 % 0 lf 999,9 hPa 0,0 l/m 0 min 0 min 5 W/m 18,8 km/h (3 Bft) 95,74 %
13.09.2017 20:56 14,4 C 13,9 C 12,2 C 75 % 0 lf 999,9 hPa 0,0 l/m 0 min 0 min 5 W/m 16,7 km/h (3 Bft) 95,74 %
13.09.2017 20:58 14,4 C 13,9 C 12,2 C 75 % 0 lf 999,9 hPa 0,0 l/m 0 min 0 min 0 W/m 14,6 km/h (3 Bft) 95,74 %
13.09.2017 21:00 14,4 C 13,9 C 12,2 C 75 % 0 lf 999,9 hPa 0,0 l/m 0 min 0 min 0 W/m 16,7 km/h (3 Bft) 95,65 %
13.09.2017 21:02 14,3 C 13,9 C 12,2 C 75 % 0 lf 999,9 hPa 0,0 l/m 0 min 0 min 5 W/m 14,6 km/h (3 Bft) 95,74 %
13.09.2017 21:04 14,3 C 13,9 C 12,2 C 75 % 0 lf 999,9 hPa 0,0 l/m 0 min 0 min 3 W/m 14,6 km/h (3 Bft) 93,62 %
13.09.2017 21:06 14,3 C 13,9 C 12,2 C 75 % 0 lf 999,8 hPa 0,0 l/m 0 min 0 min 1 W/m 18,8 km/h (3 Bft) 95,74 %
13.09.2017 21:08 14,3 C 13,9 C 12,2 C 76 % 0 lf 999,9 hPa 0,0 l/m 0 min 0 min 0 W/m 16,7 km/h (3 Bft) 93,62 %
13.09.2017 21:10 14,2 C 13,9 C 12,2 C 76 % 0 lf 999,9 hPa 0,0 l/m 0 min 0 min 3 W/m 25,1 km/h (4 Bft) 91,49 %
13.09.2017 21:12 14,2 C 13,9 C 12,2 C 76 % 0 lf 1000,0 hPa 0,0 l/m 0 min 0 min 5 W/m 14,6 km/h (3 Bft) 91,30 %
13.09.2017 21:14 14,2 C 13,9 C 12,2 C 76 % 0 lf 1000,0 hPa 0,0 l/m 0 min 0 min 1 W/m 16,7 km/h (3 Bft) 91,49 %
13.09.2017 21:16 14,2 C 13,9 C 12,2 C 76 % 0 lf 1000,0 hPa 0,0 l/m 0 min 0 min 0 W/m 23,0 km/h (4 Bft) 95,74 %
13.09.2017 21:18 14,2 C 13,9 C 12,2 C 76 % 0 lf 1000,0 hPa 0,0 l/m 0 min 0 min 0 W/m 27,2 km/h (4 Bft) 93,62 %
13.09.2017 21:20 14,2 C 13,9 C 12,2 C 77 % 0 lf 1000,0 hPa 0,0 l/m 0 min 0 min 0 W/m 23,0 km/h (4 Bft) 93,62 %
13.09.2017 21:22 14,2 C 13,9 C 12,2 C 77 % 0 lf 999,9 hPa 0,0 l/m 0 min 0 min 0 W/m 18,8 km/h (3 Bft) 91,49 %
13.09.2017 21:24 14,2 C 13,9 C 12,2 C 77 % 0 lf 999,9 hPa 0,0 l/m 0 min 0 min 0 W/m 18,8 km/h (3 Bft) 93,48 %
13.09.2017 21:26 14,2 C 13,3 C 11,7 C 77 % 0 lf 999,9 hPa 0,0 l/m 0 min 0 min 0 W/m 14,6 km/h (3 Bft) 93,62 %
13.09.2017 21:28 14,2 C 13,3 C 11,7 C 77 % 0 lf 999,8 hPa 0,0 l/m 0 min 0 min 0 W/m 18,8 km/h (3 Bft) 93,62 %
13.09.2017 21:30 14,2 C 13,3 C 11,7 C 77 % 0 lf 999,8 hPa 0,0 l/m 0 min 0 min 0 W/m 12,6 km/h (3 Bft) 93,62 %
13.09.2017 21:32 14,2 C 13,3 C 11,7 C 77 % 0 lf 999,8 hPa 0,0 l/m 0 min 0 min 0 W/m 18,8 km/h (3 Bft) 93,62 %
13.09.2017 21:34 14,2 C 13,9 C 12,2 C 77 % 0 lf 999,7 hPa 0,0 l/m 0 min 0 min 0 W/m 23,0 km/h (4 Bft) 93,62 %
13.09.2017 21:36 14,2 C 13,9 C 12,2 C 77 % 0 lf 999,8 hPa 0,0 l/m 0 min 0 min 0 W/m 20,9 km/h (4 Bft) 93,48 %
13.09.2017 21:38 14,2 C 13,9 C 12,2 C 77 % 0 lf 999,8 hPa 0,0 l/m 0 min 0 min 0 W/m 16,7 km/h (3 Bft) 93,62 %
13.09.2017 21:40 14,2 C 13,9 C 12,2 C 78 % 0 lf 999,8 hPa 0,0 l/m 0 min 0 min 0 W/m 16,7 km/h (3 Bft) 93,62 %
13.09.2017 21:42 14,2 C 13,3 C 12,2 C 78 % 0 lf 999,9 hPa 0,0 l/m 0 min 0 min 0 W/m 14,6 km/h (3 Bft) 97,87 %
13.09.2017 21:44 14,2 C 13,3 C 11,7 C 78 % 0 lf 999,9 hPa 0,0 l/m 0 min 0 min 0 W/m 16,7 km/h (3 Bft) 97,87 %
13.09.2017 21:46 14,1 C 13,3 C 11,7 C 78 % 0 lf 1000,0 hPa 0,0 l/m 0 min 0 min 0 W/m 14,6 km/h (3 Bft) 93,62 %
13.09.2017 21:48 14,1 C 13,3 C 11,7 C 78 % 0 lf 1000,0 hPa 0,0 l/m 0 min 0 min 0 W/m 18,8 km/h (3 Bft) 95,65 %
13.09.2017 21:50 14,1 C 13,3 C 11,7 C 78 % 0 lf 1000,0 hPa 0,0 l/m 0 min 0 min 0 W/m 16,7 km/h (3 Bft) 97,87 %
13.09.2017 21:52 14,0 C 13,3 C 11,7 C 78 % 0 lf 1000,1 hPa 0,0 l/m 0 min 0 min 0 W/m 14,6 km/h (3 Bft) 97,87 %
13.09.2017 21:54 14,0 C 13,3 C 11,7 C 78 % 0 lf 1000,0 hPa 0,0 l/m 0 min 0 min 0 W/m 14,6 km/h (3 Bft) 97,87 %
13.09.2017 21:56 14,0 C 13,3 C 11,7 C 78 % 0 lf 1000,0 hPa 0,0 l/m 0 min 0 min 0 W/m 16,7 km/h (3 Bft) 97,87 %
13.09.2017 21:58 14,0 C 13,3 C 11,7 C 79 % 0 lf 1000,0 hPa 0,0 l/m 0 min 0 min 0 W/m 23,0 km/h (4 Bft) 95,74 %
13.09.2017 22:00 13,9 C 13,3 C 11,7 C 79 % 0 lf 1000,1 hPa 0,0 l/m 0 min 0 min 0 W/m 18,8 km/h (3 Bft) 100,00 %
13.09.2017 22:02 13,9 C 13,3 C 11,7 C 79 % 0 lf 1000,0 hPa 0,0 l/m 0 min 0 min 0 W/m 20,9 km/h (4 Bft) 95,74 %
13.09.2017 22:04 13,9 C 13,3 C 12,2 C 79 % 0 lf 1000,1 hPa 0,0 l/m 0 min 0 min 0 W/m 23,0 km/h (4 Bft) 95,74 %
13.09.2017 22:06 13,9 C 13,3 C 12,2 C 79 % 0 lf 1000,1 hPa 0,0 l/m 0 min 0 min 0 W/m 16,7 km/h (3 Bft) 97,87 %
13.09.2017 22:08 13,9 C 13,3 C 11,7 C 79 % 0 lf 1000,0 hPa 0,0 l/m 0 min 0 min 0 W/m 14,6 km/h (3 Bft) 97,87 %
13.09.2017 22:10 13,9 C 13,3 C 11,7 C 79 % 0 lf 1000,0 hPa 0,0 l/m 0 min 0 min 0 W/m 23,0 km/h (4 Bft) 95,74 %
13.09.2017 22:12 13,9 C 13,3 C 11,7 C 79 % 0 lf 1000,1 hPa 0,0 l/m 0 min 0 min 0 W/m 23,0 km/h (4 Bft) 95,65 %
13.09.2017 22:14 13,9 C 13,3 C 11,7 C 80 % 0 lf 1000,0 hPa 0,0 l/m 0 min 0 min 0 W/m 25,1 km/h (4 Bft) 100,00 %
13.09.2017 22:16 13,9 C 13,3 C 11,7 C 80 % 0 lf 1000,1 hPa 0,0 l/m 0 min 0 min 0 W/m 14,6 km/h (3 Bft) 97,87 %
13.09.2017 22:18 13,9 C 13,3 C 11,7 C 80 % 0 lf 1000,0 hPa 0,0 l/m 0 min 0 min 0 W/m 20,9 km/h (4 Bft) 95,74 %
13.09.2017 22:20 13,9 C 13,3 C 11,7 C 80 % 0 lf 1000,1 hPa 0,0 l/m 0 min 0 min 0 W/m 18,8 km/h (3 Bft) 91,49 %
13.09.2017 22:22 13,8 C 13,3 C 11,7 C 80 % 0 lf 1000,0 hPa 0,0 l/m 0 min 0 min 0 W/m 23,0 km/h (4 Bft) 100,00 %
13.09.2017 22:24 13,8 C 13,3 C 11,7 C 80 % 0 lf 1000,0 hPa 0,0 l/m 0 min 0 min 0 W/m 25,1 km/h (4 Bft) 97,87 %
13.09.2017 22:26 13,8 C 13,3 C 12,2 C 80 % 0 lf 1000,0 hPa 0,0 l/m 0 min 0 min 0 W/m 20,9 km/h (4 Bft) 95,74 %
13.09.2017 22:28 13,8 C 13,3 C 12,2 C 81 % 0 lf 1000,0 hPa 0,0 l/m 0 min 0 min 0 W/m 18,8 km/h (3 Bft) 95,74 %
13.09.2017 22:30 13,8 C 13,3 C 12,2 C 81 % 0 lf 1000,0 hPa 0,0 l/m 0 min 0 min 0 W/m 20,9 km/h (4 Bft) 97,87 %
13.09.2017 22:32 13,8 C 13,3 C 12,2 C 81 % 0 lf 999,9 hPa 0,0 l/m 0 min 0 min 0 W/m 14,6 km/h (3 Bft) 97,87 %
13.09.2017 22:34 13,8 C 13,3 C 11,7 C 81 % 0 lf 999,9 hPa 0,0 l/m 0 min 0 min 0 W/m 16,7 km/h (3 Bft) 95,65 %
13.09.2017 22:36 13,8 C 13,3 C 11,7 C 81 % 0 lf 999,9 hPa 0,0 l/m 0 min 0 min 0 W/m 14,6 km/h (3 Bft) 95,74 %
13.09.2017 22:38 13,8 C 13,3 C 11,7 C 81 % 0 lf 999,9 hPa 0,0 l/m 0 min 0 min 0 W/m 23,0 km/h (4 Bft) 97,87 %
13.09.2017 22:40 13,8 C 13,3 C 11,7 C 81 % 0 lf 999,8 hPa 0,0 l/m 0 min 0 min 0 W/m 18,8 km/h (3 Bft) 97,87 %
13.09.2017 22:42 13,8 C 13,3 C 11,7 C 81 % 0 lf 999,7 hPa 0,0 l/m 0 min 0 min 0 W/m 12,6 km/h (3 Bft) 95,74 %
13.09.2017 22:44 13,8 C 13,3 C 11,7 C 81 % 0 lf 999,8 hPa 0,0 l/m 0 min 0 min 0 W/m 16,7 km/h (3 Bft) 97,87 %
13.09.2017 22:46 13,8 C 13,3 C 11,7 C 81 % 0 lf 999,8 hPa 0,0 l/m 0 min 0 min 0 W/m 18,8 km/h (3 Bft) 95,65 %
13.09.2017 22:48 13,8 C 13,3 C 11,7 C 81 % 0 lf 999,9 hPa 0,0 l/m 0 min 0 min 0 W/m 20,9 km/h (4 Bft) 97,87 %
13.09.2017 22:50 13,8 C 13,3 C 11,7 C 81 % 0 lf 999,9 hPa 0,0 l/m 0 min 0 min 0 W/m 23,0 km/h (4 Bft) 97,87 %
13.09.2017 22:52 13,8 C 13,3 C 11,7 C 82 % 0 lf 999,9 hPa 0,0 l/m 0 min 0 min 0 W/m 29,3 km/h (5 Bft) 95,74 %
13.09.2017 22:54 13,8 C 13,3 C 12,2 C 82 % 0 lf 999,8 hPa 0,0 l/m 0 min 0 min 0 W/m 23,0 km/h (4 Bft) 97,87 %
13.09.2017 22:56 13,8 C 13,3 C 12,2 C 82 % 0 lf 999,8 hPa 0,0 l/m 0 min 0 min 0 W/m 16,7 km/h (3 Bft) 93,62 %
13.09.2017 22:58 13,8 C 13,9 C 12,2 C 82 % 0 lf 999,8 hPa 0,0 l/m 0 min 0 min 0 W/m 27,2 km/h (4 Bft) 95,65 %
13.09.2017 23:00 13,8 C 13,9 C 12,2 C 83 % 0 lf 999,7 hPa 0,0 l/m 0 min 0 min 0 W/m 16,7 km/h (3 Bft) 91,49 %
13.09.2017 23:02 13,8 C 13,9 C 12,2 C 83 % 0 lf 999,7 hPa 0,0 l/m 0 min 0 min 0 W/m 29,3 km/h (5 Bft) 95,74 %
13.09.2017 23:04 13,9 C 13,9 C 12,8 C 83 % 0 lf 999,7 hPa 0,0 l/m 0 min 0 min 0 W/m 18,8 km/h (3 Bft) 95,74 %
13.09.2017 23:06 13,9 C 13,9 C 12,8 C 83 % 0 lf 999,7 hPa 0,0 l/m 0 min 0 min 0 W/m 20,9 km/h (4 Bft) 95,74 %
13.09.2017 23:08 13,9 C 13,9 C 12,8 C 84 % 0 lf 999,6 hPa 0,0 l/m 0 min 0 min 0 W/m 20,9 km/h (4 Bft) 95,74 %
13.09.2017 23:10 14,0 C 13,9 C 12,8 C 84 % 0 lf 999,8 hPa 0,0 l/m 0 min 0 min 0 W/m 23,0 km/h (4 Bft) 93,48 %
13.09.2017 23:12 14,1 C 13,9 C 12,8 C 84 % 0 lf 999,7 hPa 0,0 l/m 0 min 0 min 0 W/m 20,9 km/h (4 Bft) 95,74 %
13.09.2017 23:14 14,1 C 13,9 C 12,8 C 84 % 0 lf 999,8 hPa 0,0 l/m 0 min 0 min 0 W/m 27,2 km/h (4 Bft) 93,62 %
13.09.2017 23:16 14,2 C 13,9 C 12,8 C 84 % 0 lf 999,7 hPa 0,0 l/m 0 min 0 min 0 W/m 31,4 km/h (5 Bft) 97,87 %
13.09.2017 23:18 14,2 C 13,9 C 12,8 C 84 % 0 lf 999,6 hPa 0,0 l/m 0 min 0 min 0 W/m 18,8 km/h (3 Bft) 95,74 %
13.09.2017 23:20 14,2 C 13,9 C 12,8 C 84 % 0 lf 999,7 hPa 0,0 l/m 0 min 0 min 0 W/m 14,6 km/h (3 Bft) 95,74 %
13.09.2017 23:22 14,2 C 13,9 C 12,8 C 85 % 0 lf 999,7 hPa 0,0 l/m 0 min 0 min 0 W/m 31,4 km/h (5 Bft) 97,83 %
13.09.2017 23:24 14,2 C 14,4 C 12,8 C 85 % 0 lf 999,7 hPa 0,0 l/m 0 min 0 min 0 W/m 29,3 km/h (5 Bft) 97,87 %
13.09.2017 23:26 14,2 C 14,4 C 12,8 C 85 % 0 lf 999,7 hPa 0,0 l/m 0 min 0 min 0 W/m 31,4 km/h (5 Bft) 97,87 %
13.09.2017 23:28 14,2 C 14,4 C 12,8 C 85 % 0 lf 999,6 hPa 0,0 l/m 0 min 0 min 0 W/m 33,5 km/h (5 Bft) 97,87 %
13.09.2017 23:30 14,3 C 14,4 C 12,8 C 85 % 0 lf 999,5 hPa 0,0 l/m 0 min 0 min 0 W/m 25,1 km/h (4 Bft) 100,00 %
13.09.2017 23:32 14,3 C 14,4 C 12,8 C 85 % 0 lf 999,5 hPa 0,0 l/m 0 min 0 min 0 W/m 29,3 km/h (5 Bft) 97,83 %
13.09.2017 23:34 14,3 C 14,4 C 12,8 C 85 % 0 lf 999,5 hPa 0,0 l/m 0 min 0 min 0 W/m 29,3 km/h (5 Bft) 97,87 %
13.09.2017 23:36 14,3 C 14,4 C 12,8 C 85 % 0 lf 999,5 hPa 0,0 l/m 0 min 0 min 0 W/m 25,1 km/h (4 Bft) 100,00 %
13.09.2017 23:38 14,3 C 14,4 C 12,8 C 85 % 0 lf 999,5 hPa 0,0 l/m 0 min 0 min 0 W/m 33,5 km/h (5 Bft) 100,00 %
13.09.2017 23:40 14,3 C 13,9 C 12,8 C 85 % 0 lf 999,4 hPa 0,0 l/m 0 min 0 min 0 W/m 23,0 km/h (4 Bft) 95,65 %
13.09.2017 23:42 14,3 C 13,9 C 12,8 C 85 % 0 lf 999,4 hPa 0,0 l/m 0 min 0 min 0 W/m 33,5 km/h (5 Bft) 98,36 %
13.09.2017 23:44 14,4 C 14,4 C 12,8 C 85 % 0 lf 999,4 hPa 0,0 l/m 0 min 0 min 0 W/m 31,4 km/h (5 Bft) 97,87 %
13.09.2017 23:46 14,3 C 14,4 C 12,8 C 85 % 0 lf 999,4 hPa 0,0 l/m 0 min 0 min 0 W/m 27,2 km/h (4 Bft) 97,87 %
13.09.2017 23:48 14,4 C 14,4 C 12,8 C 85 % 0 lf 999,4 hPa 0,0 l/m 0 min 0 min 0 W/m 31,4 km/h (5 Bft) 97,87 %
13.09.2017 23:50 14,4 C 14,4 C 12,8 C 85 % 3 lf 999,4 hPa 0,0 l/m 0 min 2 min 0 W/m 33,5 km/h (5 Bft) 97,87 %
13.09.2017 23:52 14,4 C 13,9 C 12,8 C 84 % 3 lf 999,5 hPa 0,0 l/m 0 min 2 min 0 W/m 29,3 km/h (5 Bft) 97,83 %
13.09.2017 23:54 14,4 C 13,9 C 12,2 C 84 % 15 lf 999,8 hPa 0,0 l/m 0 min 2 min 0 W/m 20,9 km/h (4 Bft) 95,74 %
13.09.2017 23:56 14,4 C 12,8 C 11,7 C 85 % 15 lf 1000,0 hPa 0,2 l/m 0 min 2 min 0 W/m 41,8 km/h (6 Bft) 97,87 %
13.09.2017 23:58 14,4 C 12,2 C 11,1 C 85 % 15 lf 1000,0 hPa 0,0 l/m 0 min 2 min 0 W/m 37,7 km/h (5 Bft) 91,49 %
_ Min-Zeit 05:24 04:18 00:00 13:54 00:00 09:12 - - - - 00:36 04:32
Minimum _ 12,3 C 11,1 C 10,0 C 60 % 0 lf 995,8 hPa - - - - 10,5 km/h (2 Bft) 85,11 %
_ Max-Zeit 14:18 13:56 12:18 05:20 04:10 00:00 04:08 12:10 04:05 12:20 09:42 00:00
Maximum _ 19,9 C 25,6 C 21,7 C 93 % 15 lf 1007,4 hPa 0,2 l/m 4 min 5 min 840 W/m 75,3 km/h
W-SW (9 Bft)
100,00 %
Durchschnitt _ 15,4 C 16,2 C 14,1 C 80 % 3 lf 999,7 hPa #3,4 l/m #8:20 h #4:32 h 280 W/m 36,0 km/h (5 Bft) 96,55 %
© 2017 W. Hausmann